GFSWCAN_2pvu_pres_021.txt.gz
Presure
254 253 243 284 262 241 239 228 219 212 215 196 232 217 177 205 204 198 198 207 189 188 194 197 187 192 190 184 193 199 193 203 217 209 203 194 194 194 193 190 189 200 200 192 193 202 192 150 154 195 197 200 208 208
241 253 265 247 248 238 238 220 218 206 217 236 234 217 203 217 211 206 200 204 204 189 200 192 184 186 196 194 215 223 205 194 180 214 206 204 200 190 186 192 189 187 195 198 197 180 198 198 192 191 122 205 206 206
259 235 270 252 239 234 230 217 216 205 256 243 236 216 207 200 207 204 206 192 202 189 197 192 189 191 184 186 192 198 194 186 198 213 207 195 187 195 196 193 187 192 197 188 202 164 202 190 195 198 202 203 206 216
245 257 263 255 239 232 229 219 216 207 239 238 221 207 211 204 208 204 204 200 190 200 184 196 186 191 197 195 196 199 184 195 195 200 195 195 194 190 193 195 190 188 193 199 194 198 189 195 200 203 203 218 191 207
244 258 264 240 236 231 227 219 215 208 218 244 197 227 205 226 206 204 202 203 201 208 199 201 194 192 192 194 192 192 198 198 199 199 195 192 190 191 182 186 143 100 200 86 192 194 196 198 199 201 218 225 207 203
246 350 251 233 232 230 227 223 213 212 206 236 242 197 226 213 213 205 192 202 203 193 205 201 199 191 197 198 180 179 197 194 191 192 190 188 190 192 189 187 122 116 195 120 195 206 203 204 197 192 224 212 200 195
275 277 242 228 236 228 227 222 218 211 203 232 220 237 207 226 219 207 204 197 205 204 209 195 196 192 192 198 198 197 199 201 203 201 199 199 200 192 192 186 190 192 195 202 205 203 217 208 214 221 206 195 199 201
257 256 242 219 236 232 226 223 217 214 207 206 217 228 228 219 222 197 203 208 199 198 199 202 199 197 195 196 197 142 198 168 155 152 195 195 197 198 187 193 144 203 206 203 212 209 209 223 209 194 201 202 205 214
267 248 241 235 235 231 228 225 222 210 214 198 207 205 233 233 222 221 232 211 219 207 207 201 198 204 203 200 205 203 171 151 205 207 208 210 207 204 212 209 205 202 218 226 202 227 204 200 204 202 207 208 209 202
264 261 238 241 229 239 217 229 222 205 219 207 207 208 209 196 214 220 218 214 198 229 181 186 191 196 198 201 202 109 210 209 210 215 217 216 216 221 231 231 225 212 219 211 203 199 199 206 208 204 211 205 213 213
268 248 250 241 239 225 234 204 223 223 212 216 212 210 204 205 203 199 199 211 215 217 226 223 221 221 223 222 228 232 234 234 237 233 229 224 218 216 210 207 200 200 201 204 207 208 204 210 212 210 215 214 218 222
255 263 252 247 239 228 215 229 222 215 226 214 201 211 208 209 207 200 202 205 204 195 191 198 197 187 204 205 205 206 204 206 208 209 209 206 206 207 207 206 208 207 204 203 209 212 210 213 214 217 217 220 227 226
253 246 237 238 258 237 231 231 228 227 219 214 219 218 210 217 211 205 204 205 211 208 208 209 207 208 206 204 206 206 206 202 207 204 202 203 200 202 210 210 210 211 212 213 212 217 219 219 221 224 226 226 235 256
238 245 235 239 238 242 238 220 216 235 235 223 224 220 221 223 219 218 217 210 210 205 204 207 210 211 208 209 212 214 212 213 214 216 216 218 220 225 223 223 222 223 224 223 217 217 224 227 228 234 245 260 261 251
249 234 240 248 236 231 231 233 237 232 226 229 234 233 231 226 217 216 213 211 211 215 218 216 215 217 216 217 218 217 218 222 223 224 221 221 222 225 224 226 224 229 234 233 229 225 228 236 261 269 256 262 246 259
256 256 264 239 248 253 255 251 244 234 235 245 236 228 228 235 237 234 231 229 231 230 229 227 227 231 229 226 225 226 226 226 232 238 237 232 232 237 236 238 245 245 251 260 268 269 270 265 259 254 245 248 241 277
253 251 232 248 255 251 245 246 256 259 240 243 233 242 244 242 238 231 258 229 229 231 236 235 233 232 231 233 232 235 242 246 243 243 244 246 245 247 263 265 275 263 273 291 260 285 262 276 260 252 258 276 279 269
242 245 247 253 233 232 235 238 252 256 263 271 273 229 219 218 213 246 268 251 250 253 249 277 248 248 258 257 250 284 278 259 264 262 261 259 257 255 254 254 255 261 243 261 242 260 294 268 269 295 280 266 275 306
255 258 250 254 244 247 270 238 245 249 260 234 236 244 243 269 268 258 253 259 249 277 255 250 276 265 253 270 263 239 221 273 263 235 245 257 252 229 235 253 261 273 277 284 283 286 288 282 274 270 295 315 316 317
255 248 246 248 250 250 253 252 248 253 255 251 253 256 252 251 257 256 247 236 242 252 234 243 255 235 231 257 263 265 253 248 259 264 276 266 263 272 271 278 286 282 279 267 278 280 276 317 332 333 334 338 331 328
262 267 244 251 250 247 265 244 255 253 251 261 258 253 258 259 262 259 257 259 264 265 263 265 267 265 263 265 269 262 273 278 279 271 285 291 342 313 264 265 277 277 340 341 337 329 326 324 316 319 389 390 388 374
259 263 264 263 259 257 259 254 259 261 258 258 257 257 254 253 252 251 261 263 254 264 268 263 260 276 269 263 266 267 273 273 273 275 290 290 287 324 326 322 326 329 334 354 367 372 375 373 387 423 416 406 401 398
271 283 280 262 270 272 269 263 255 264 257 256 255 262 260 257 267 279 304 322 296 303 300 273 268 276 310 352 341 360 364 362 360 359 257 327 360 361 226 361 363 364 362 361 365 366 392 397 396 393 390 385 387 384
278 282 283 307 281 284 292 292 299 270 265 269 296 291 286 313 277 313 316 318 317 316 319 339 360 369 368 366 364 360 360 363 364 361 358 356 353 353 351 352 355 355 382 400 394 385 378 373 377 382 387 382 373 370
311 314 312 314 318 321 321 318 319 318 317 318 322 324 321 324 325 326 327 324 335 348 365 364 359 368 373 366 365 365 349 348 344 340 338 339 342 353 353 353 361 391 391 380 371 371 373 374 375 378 376 405 400 375
316 316 315 324 328 328 328 323 322 323 325 326 328 328 323 328 335 342 348 360 364 365 365 359 357 353 346 343 337 336 330 333 334 333 352 343 336 343 359 369 389 381 377 377 379 393 400 400 400 387 363 352 354 355
362 378 438 442 463 456 450 440 412 383 377 372 376 381 373 371 372 366 364 364 358 350 341 341 342 339 333 330 333 332 356 345 341 344 344 350 346 372 387 379 374 375 388 401 394 375 359 351 351 351 349 346 346 351
422 425 405 437 432 426 413 427 420 438 435 436 405 360 357 352 348 344 346 342 340 345 339 338 330 337 337 338 345 337 335 335 339 341 350 373 389 373 366 373 390 380 360 352 354 355 350 349 349 358 343 363 367 358
375 380 378 386 387 394 388 386 391 395 392 380 387 373 357 344 330 327 326 327 330 324 328 345 342 347 342 336 339 337 336 346 356 381 380 364 362 382 384 360 353 353 349 345 349 367 364 331 344 371 363 351 423 394
355 350 353 360 364 359 365 372 372 365 363 370 369 361 349 339 335 332 329 331 332 337 346 351 347 340 346 343 344 350 369 378 365 359 372 387 364 350 348 343 340 348 349 356 320 346 366 363 348 358 426 408 373 351
341 340 343 343 343 343 347 352 352 354 355 354 355 348 339 344 336 348 354 354 350 345 341 339 342 347 367 382 372 359 359 373 380 354 343 343 342 338 339 370 383 317 350 363 353 344 342 418 422 406 378 350 344 342
328 329 332 333 329 332 331 342 342 336 337 339 338 340 337 335 333 332 336 339 347 359 389 379 369 356 356 368 370 353 347 346 340 337 336 405 396 384 372 367 369 355 338 342 440 437 425 407 387 357 344 339 335 342
351 350 349 348 350 347 348 353 358 361 357 358 357 361 369 376 385 379 366 355 351 349 353 370 357 346 353 355 336 331 353 357 310 390 386 379 362 352 360 303 340 346 442 430 423 409 391 366 346 340 335 332 336 337

GFSWCAN_2pvu_pres_024.txt.gz
Presure
256 260 260 253 254 270 262 244 237 241 228 226 251 242 225 217 208 214 212 213 210 200 194 196 198 189 189 193 193 191 190 199 198 200 213 213 208 201 199 198 195 197 197 196 189 193 191 197 203 191 189 195 197 161
255 259 247 261 241 267 250 232 240 229 225 217 241 242 215 218 208 216 223 221 211 198 197 191 198 200 186 189 196 193 195 191 197 200 194 211 213 211 207 203 200 204 201 195 195 199 198 192 193 188 192 193 190 190
247 242 251 264 266 250 238 234 235 221 219 217 219 241 212 217 204 215 215 217 215 202 198 190 195 195 193 201 187 191 191 185 187 219 208 194 193 209 209 202 201 197 194 196 197 197 191 190 193 194 189 188 191 196
251 241 253 261 255 246 232 236 227 219 216 217 257 241 220 218 199 214 195 204 208 209 192 185 190 194 199 192 195 193 189 186 194 189 197 197 192 189 188 196 189 190 116 158 88 152 190 189 188 194 195 194 200 210
249 257 254 266 249 238 238 232 224 219 215 217 234 233 225 217 213 199 205 199 203 201 197 200 193 182 195 195 193 192 194 196 198 197 201 200 197 197 196 203 81 105 175 168 177 189 187 189 193 199 199 203 209 208
263 247 265 255 242 238 238 223 222 218 207 217 228 242 227 219 215 202 203 207 201 201 196 190 204 201 200 183 182 193 193 191 200 200 193 181 184 193 189 186 110 194 196 199 196 195 197 197 193 199 210 212 207 225
249 238 265 249 240 237 235 224 219 218 206 218 257 246 229 216 222 202 204 206 214 203 207 192 196 193 191 199 201 201 193 189 201 196 199 205 199 198 189 138 184 184 197 193 194 199 205 210 211 212 207 225 232 199
232 239 261 252 243 234 233 222 219 213 216 210 227 246 217 211 184 221 209 202 205 204 200 211 205 200 193 193 192 192 206 204 199 196 139 192 192 199 198 195 191 194 199 201 203 205 200 211 222 229 228 210 201 203
238 248 245 265 233 231 232 230 222 217 217 209 218 221 215 194 227 212 220 216 212 205 210 203 195 199 204 203 203 211 208 205 202 198 196 188 196 196 189 197 198 198 203 209 220 226 234 233 221 203 202 204 203 211
236 237 266 252 239 228 232 229 228 215 218 217 212 207 216 235 225 200 195 219 228 216 210 204 205 206 209 211 208 208 205 204 204 204 207 207 197 200 203 209 214 230 234 233 208 204 200 203 206 202 205 211 213 215
286 262 260 253 245 221 236 234 233 226 216 215 212 207 203 213 233 235 240 243 232 216 205 151 210 206 206 212 207 217 215 217 213 196 206 203 208 221 236 223 209 204 203 204 206 202 201 205 212 217 216 215 220 222
269 265 275 261 250 231 217 232 235 227 230 217 212 208 212 209 200 203 216 200 207 225 220 218 218 227 225 224 230 227 228 230 234 230 229 208 197 201 205 207 210 203 203 207 208 215 218 217 220 220 225 229 230 227
260 264 262 254 239 241 209 220 231 232 223 226 225 214 209 210 208 207 206 206 205 204 193 189 200 221 217 204 202 206 200 196 199 205 205 205 205 209 211 213 211 206 211 215 212 214 226 226 225 228 225 227 231 239
254 265 266 259 246 225 229 236 230 230 234 225 208 225 226 219 210 213 210 209 208 206 205 204 201 202 199 202 206 209 214 214 212 207 205 209 212 214 218 218 212 214 223 225 227 227 230 238 240 244 247 241 255 265
252 253 261 266 256 243 223 231 240 233 218 217 230 227 221 222 224 222 219 208 205 209 212 211 212 213 211 212 212 215 217 220 221 222 221 223 216 220 225 229 234 236 235 234 234 242 245 247 251 262 270 259 264 243
244 249 258 257 256 258 250 240 240 238 233 228 226 229 228 227 229 230 228 223 222 221 219 219 219 219 219 216 207 208 214 220 226 229 233 237 238 238 235 240 240 246 254 261 258 263 263 267 250 235 250 253 233 265
250 249 240 253 257 251 247 237 242 242 253 253 247 211 221 225 226 232 235 235 236 239 237 237 235 233 238 236 235 237 237 239 245 242 235 237 243 245 250 260 251 250 257 270 241 255 251 247 251 273 304 296 290 294
252 244 250 250 240 251 248 240 237 235 234 247 246 239 240 246 245 247 244 238 240 243 241 239 239 238 238 239 240 241 245 244 241 241 247 256 257 250 294 258 256 242 256 280 279 283 288 293 272 270 265 279 278 300
244 255 253 249 248 253 254 257 258 262 266 252 247 241 245 234 238 250 252 260 241 237 247 246 233 228 235 229 228 231 237 253 245 243 247 257 271 249 238 251 259 244 265 274 274 277 258 274 280 302 325 330 329 331
229 249 240 250 257 258 253 251 251 263 239 251 264 252 262 244 245 251 257 255 266 254 246 239 241 244 248 250 280 276 265 264 266 234 262 268 273 270 278 274 273 268 275 275 323 320 329 336 290 331 349 366 374 377
255 253 253 256 247 241 244 253 246 263 256 252 263 232 233 233 263 265 244 246 262 268 263 244 240 270 269 251 232 242 258 265 264 271 278 282 304 284 164 275 277 351 264 355 354 173 358 361 372 374 365 360 381 404
256 258 257 250 253 249 256 256 256 266 256 265 259 266 272 272 269 255 256 257 252 260 263 258 257 264 260 256 255 253 266 268 270 288 269 268 283 336 261 350 362 360 357 359 367 353 358 363 358 368 374 402 397 389
251 254 256 258 261 259 253 257 250 251 254 251 250 255 259 262 265 260 257 251 254 255 260 260 264 258 259 262 263 208 303 330 330 241 338 336 371 370 375 373 374 362 353 350 349 348 356 363 364 400 392 386 383 388
264 261 263 247 255 260 259 260 258 257 260 263 259 259 249 261 263 265 269 269 269 274 280 283 285 314 317 317 320 324 326 342 372 384 384 374 366 355 354 348 343 342 344 353 352 352 359 391 391 377 379 408 401 377
274 278 282 279 253 258 267 263 259 264 262 262 270 268 272 281 284 278 275 278 283 280 281 299 284 283 322 253 299 370 373 381 374 362 356 352 346 344 341 340 358 350 338 350 354 382 390 375 375 399 374 360 354 354
307 307 306 315 307 306 302 305 275 277 307 318 299 299 297 321 320 313 290 285 292 308 313 323 328 333 349 372 374 373 361 353 350 353 347 342 339 343 329 329 345 356 359 372 388 370 376 395 363 353 353 349 346 358
323 322 317 322 322 325 325 324 321 317 322 327 330 328 327 328 329 333 336 334 334 332 337 355 368 366 360 356 349 346 346 352 345 340 337 337 327 337 350 358 355 368 381 366 377 388 356 350 344 345 342 353 342 342
361 365 421 439 446 445 458 461 450 449 459 457 454 449 465 444 426 444 418 397 381 372 360 354 349 346 342 343 337 335 334 331 326 325 343 350 356 356 359 375 373 362 380 378 347 348 341 343 343 373 321 368 361 344
406 399 395 391 393 403 406 401 398 397 395 402 396 390 398 394 395 396 400 376 367 359 352 348 344 342 336 333 331 330 325 323 343 355 353 351 371 377 360 367 373 344 342 344 341 343 389 322 376 372 350 346 446 430
368 367 368 365 362 364 364 366 371 371 373 375 372 372 370 369 363 365 365 363 358 354 348 344 337 337 337 332 328 343 354 350 353 372 378 363 362 364 353 345 338 348 390 361 386 377 371 371 347 348 426 435 420 399
348 349 347 345 345 349 341 343 352 350 349 352 353 356 354 352 353 353 354 354 354 352 352 350 336 347 351 348 347 371 383 368 355 367 353 349 356 341 331 314 301 383 383 361 337 367 355 344 414 428 415 399 373 351
332 326 344 343 335 335 338 340 342 341 346 349 344 345 344 340 343 343 346 345 344 345 349 356 378 379 374 364 354 357 373 359 353 348 323 346 352 310 298 364 376 373 361 376 362 341 357 427 416 402 381 358 343 338
349 350 354 359 366 370 373 375 380 381 379 373 364 361 357 359 361 365 365 362 359 356 353 350 350 357 362 355 350 347 347 355 373 424 392 406 304 313 387 380 373 368 135 346 367 429 418 411 395 364 348 337 336 336

GFSWCAN_2pvu_pres_030.txt.gz
Presure
294 292 287 295 274 288 311 292 285 299 289 286 290 280 178 276 236 243 261 245 237 229 229 216 207 212 210 208 208 209 204 204 201 197 198 196 196 197 196 198 199 200 200 202 203 203 204 204 200 199 201 201 201 202
279 273 282 281 283 276 278 299 295 288 289 283 280 271 272 256 248 264 244 242 225 229 228 206 210 213 203 212 208 202 201 201 199 193 198 200 196 197 199 203 203 202 207 209 209 208 145 197 85 213 215 212 209 209
288 275 281 286 272 284 284 279 279 277 273 275 274 249 249 256 260 247 244 231 228 232 223 208 211 214 213 210 206 202 201 201 203 200 200 198 204 205 201 209 212 200 195 91 199 196 155 202 205 201 190 194 194 197
268 269 266 256 264 270 274 266 266 269 258 267 261 258 248 252 244 246 225 230 225 230 220 211 209 206 214 208 194 202 202 210 208 206 206 199 203 195 194 198 193 143 194 198 193 198 205 168 193 197 198 203 196 199
255 255 253 258 253 261 259 253 255 255 258 256 256 258 254 241 237 245 228 221 227 230 208 219 208 210 207 210 198 201 197 196 196 193 189 191 188 191 191 188 188 191 194 199 198 134 197 191 185 203 199 200 194 190
252 248 251 252 253 249 252 249 254 256 243 260 254 253 237 231 253 232 232 227 229 223 206 216 201 212 203 209 196 203 200 200 198 198 197 197 199 193 195 196 191 186 191 197 203 199 192 205 196 193 202 191 198 200
252 252 261 257 248 253 261 261 249 257 268 252 251 229 224 252 226 230 224 222 228 215 201 212 201 217 209 207 201 198 201 196 195 189 191 189 193 195 195 189 188 198 200 200 201 198 204 211 210 197 192 200 207 208
240 243 249 252 261 258 258 259 263 257 253 237 233 223 243 238 218 234 225 224 220 218 205 209 203 202 207 208 202 198 194 197 197 196 194 191 192 194 198 197 199 201 188 195 204 203 205 207 193 203 207 212 211 216
233 235 240 240 240 255 256 253 247 243 230 234 216 217 243 251 229 232 223 224 214 209 199 211 210 205 205 212 210 206 198 198 199 198 199 199 199 194 201 200 195 199 204 201 209 203 202 207 206 205 216 216 213 209
242 236 228 233 238 253 253 241 242 237 227 227 220 211 246 228 232 222 216 203 214 207 207 206 210 217 213 210 209 210 208 207 206 207 202 203 199 201 209 204 211 212 199 195 202 206 197 206 214 215 230 204 210 210
236 245 252 249 247 245 246 236 229 238 226 225 218 217 218 247 232 231 199 210 221 216 205 200 203 208 181 205 205 206 204 204 206 207 209 209 207 209 207 200 198 203 203 210 208 210 214 218 237 214 212 204 214 215
244 241 256 218 243 249 247 240 224 239 227 224 219 215 214 222 244 228 223 219 208 203 213 214 210 209 206 208 204 204 205 206 205 206 203 187 187 204 208 214 214 214 218 219 223 237 224 207 208 206 214 215 215 222
222 244 230 255 247 248 236 241 230 231 237 229 213 222 212 209 207 265 245 227 221 219 212 196 204 210 218 220 216 214 215 215 216 213 208 211 209 211 211 215 221 237 235 220 213 204 209 215 215 215 215 229 237 238
240 238 251 246 252 247 246 234 240 230 229 233 230 222 220 217 208 210 211 252 247 233 224 220 215 214 203 212 213 216 206 213 211 212 219 224 228 242 234 210 211 209 204 204 204 215 213 215 225 234 239 241 247 248
248 243 233 234 249 265 248 240 242 240 235 233 233 228 220 221 219 213 212 212 243 250 247 240 233 229 221 210 211 215 223 231 233 240 235 218 208 212 210 210 207 207 215 214 217 228 232 240 244 241 245 250 246 252
240 252 250 245 243 246 251 249 245 235 234 237 237 235 228 221 223 222 219 215 216 217 214 217 221 221 219 222 220 216 216 209 211 213 216 215 213 211 213 214 218 224 232 239 242 248 250 254 251 253 263 264 271 265
237 246 231 252 247 232 230 249 239 251 242 230 238 241 232 230 230 224 221 227 228 227 223 221 224 224 222 220 217 216 212 211 215 219 218 215 225 230 233 234 239 239 245 259 255 250 251 264 271 271 268 254 272 263
230 233 238 277 276 248 238 254 242 236 254 243 238 234 236 237 236 239 241 234 236 236 234 231 230 228 227 228 229 229 230 233 233 234 236 237 238 243 236 241 257 254 247 244 255 248 262 251 250 246 262 282 283 319
240 249 241 270 275 253 263 262 259 234 250 250 249 247 238 234 234 236 236 235 230 231 228 229 233 237 235 232 232 232 234 232 237 244 249 250 251 258 252 248 247 244 252 274 270 248 252 267 277 273 264 284 379 398
258 253 272 253 278 257 253 261 257 253 252 251 248 249 248 247 247 246 243 239 231 237 238 239 241 233 238 250 246 244 242 249 257 253 248 246 247 248 253 247 260 274 244 241 250 255 282 285 314 307 336 402 384 369
264 277 258 268 266 269 277 255 257 253 256 259 257 251 246 245 243 244 247 243 240 236 237 246 251 251 237 254 267 261 251 249 242 252 265 262 258 250 251 262 272 274 257 296 302 301 301 308 337 337 386 368 368 358
266 256 253 273 237 281 270 276 286 273 271 267 264 264 266 262 261 260 263 262 261 262 262 269 267 259 257 255 258 269 266 256 257 260 247 250 254 249 260 268 297 298 294 285 289 302 323 336 354 383 365 351 346 339
251 254 256 268 276 262 250 251 290 305 292 284 280 267 261 260 261 272 268 261 256 253 254 250 251 261 268 262 253 254 265 266 261 253 252 262 273 292 299 292 283 287 310 319 323 335 346 371 378 357 354 346 347 363
292 284 273 255 283 279 288 274 276 256 256 252 244 250 288 289 283 262 259 266 267 254 244 250 259 261 261 261 262 266 264 263 262 268 280 285 290 287 292 307 315 308 315 332 346 365 377 373 355 355 340 357 366 381
293 286 287 293 292 287 273 274 286 288 288 296 275 279 274 270 276 269 266 274 278 270 267 272 276 271 269 276 279 269 270 272 284 292 298 303 313 315 314 319 320 331 345 360 374 376 368 364 353 355 360 381 377 372
306 308 298 294 290 290 288 285 285 282 282 282 281 273 274 281 277 279 269 275 278 275 274 275 274 272 273 280 289 302 312 314 306 312 316 312 317 321 325 338 355 376 388 389 377 366 365 366 361 372 378 372 365 352
322 321 323 310 309 306 306 305 304 302 299 292 289 290 290 286 281 283 277 279 280 285 288 294 303 312 315 304 309 317 304 301 317 323 331 338 371 384 394 387 389 381 376 372 374 374 366 371 375 371 363 354 357 420
331 372 353 333 327 332 334 335 321 318 317 319 318 319 325 326 323 324 330 338 340 310 318 337 338 341 341 340 348 402 400 398 399 396 397 393 392 386 382 380 380 379 376 370 361 376 371 364 359 352 358 419 405 387
355 333 337 342 343 334 332 336 339 343 343 345 354 413 413 422 415 416 417 421 419 418 414 408 407 406 402 399 397 393 390 389 386 383 382 380 376 374 372 366 360 362 373 378 356 365 361 366 370 383 386 370 361 356
375 375 353 350 344 348 324 349 388 387 388 388 387 391 387 384 387 386 382 378 378 379 380 377 376 376 374 373 370 371 368 365 363 363 361 365 372 372 375 372 365 353 362 367 360 374 373 412 379 365 358 390 447 437
376 373 375 375 373 376 376 374 370 367 364 361 361 357 352 350 361 352 354 361 363 362 362 366 369 370 370 368 367 369 371 374 372 366 359 355 354 359 368 367 358 374 395 416 417 409 392 371 356 350 466 453 456 446
360 359 362 368 376 379 379 379 379 377 371 366 365 368 369 369 372 373 371 369 365 361 362 360 358 356 355 354 354 353 353 360 364 363 360 359 363 377 388 396 398 401 401 402 383 374 377 347 339 462 368 346 347 348
363 359 357 365 369 366 362 356 356 355 361 363 362 361 362 360 359 355 357 354 352 350 352 359 359 357 356 359 362 361 359 360 365 372 382 391 393 387 381 384 388 376 379 385 369 368 359 337 334 397 348 344 345 353

GFSWCAN_2pvu_pres_033.txt.gz
Presure
471 477 484 489 498 381 360 364 383 366 367 306 291 283 281 319 315 295 201 223 235 210 214 237 191 233 225 220 209 204 213 219 200 214 207 200 201 197 199 202 202 202 199 196 197 197 199 197 199 135 173 199 202 204
340 329 331 331 326 322 320 321 316 301 289 288 276 277 320 304 298 272 248 274 165 240 241 232 225 230 227 222 212 210 211 216 203 210 207 199 199 184 203 196 198 198 198 198 200 131 189 201 203 206 200 119 204 203
300 296 294 291 290 287 291 287 284 283 281 276 276 313 295 190 219 268 227 187 241 195 244 236 235 226 229 215 212 209 210 205 207 211 207 199 201 198 196 202 202 196 198 161 203 204 211 214 183 198 190 191 198 197
286 278 277 290 267 270 286 285 267 279 283 290 305 304 289 263 267 229 274 226 198 224 205 244 238 224 226 215 205 211 205 208 205 210 203 200 203 199 195 199 202 185 204 200 198 207 197 192 195 193 199 190 199 194
278 270 275 266 276 277 296 281 282 287 288 291 287 282 279 270 170 178 258 250 222 215 215 243 233 226 222 215 203 211 212 204 204 206 203 206 201 200 201 200 200 200 195 195 194 196 193 198 198 196 199 187 195 202
252 269 268 271 266 268 272 291 278 286 285 268 274 265 267 260 220 255 252 218 221 231 251 236 232 230 214 213 212 208 205 209 205 208 202 200 204 207 201 201 189 192 91 195 196 199 199 197 200 204 192 191 198 201
238 250 264 263 262 269 269 260 255 265 267 262 260 244 257 255 260 266 251 229 230 249 238 229 224 231 214 206 213 209 211 208 206 193 198 202 209 202 196 198 198 196 182 196 196 186 202 204 203 191 190 202 201 203
249 244 260 245 259 259 260 266 260 259 256 256 256 259 248 250 248 250 233 244 242 237 234 221 228 227 213 206 210 205 214 204 209 198 198 205 203 198 194 194 193 195 196 196 200 199 198 194 199 206 210 202 198 202
241 247 241 248 242 246 255 260 259 264 261 251 267 247 254 241 229 252 246 245 241 233 227 219 224 223 211 210 202 204 213 205 208 207 200 197 193 195 197 198 195 200 201 197 185 200 206 214 209 201 200 203 204 214
258 256 248 234 240 254 258 253 255 258 254 259 248 267 238 257 246 238 234 235 237 231 223 219 224 222 208 216 205 201 200 212 207 207 208 201 192 192 200 201 200 200 207 208 208 214 206 200 202 203 211 213 211 221
248 254 252 260 253 254 253 252 256 246 257 260 255 244 247 245 232 230 253 239 225 227 220 223 223 221 194 212 211 204 201 200 200 208 212 211 206 207 209 211 210 210 212 184 195 202 202 205 212 213 217 232 238 191
237 237 243 244 252 254 253 252 253 252 244 237 244 237 225 222 238 252 231 219 227 223 218 221 221 221 200 193 207 206 214 212 192 200 201 202 204 206 208 210 193 202 202 202 211 214 210 215 220 235 227 197 217 213
241 242 245 230 247 254 256 253 249 247 233 227 234 222 213 218 236 253 237 221 219 225 218 220 223 218 213 211 210 210 207 215 216 216 209 211 214 210 206 204 200 211 215 214 215 217 221 232 233 209 219 213 216 223
231 233 233 247 241 243 249 257 248 231 237 226 234 230 217 214 213 237 247 229 226 212 218 222 211 211 210 217 218 217 209 215 211 210 208 213 216 217 216 215 209 212 211 214 220 234 216 215 215 208 218 225 229 231
241 215 226 234 239 243 235 242 253 240 232 241 225 225 224 221 219 221 234 240 230 228 228 224 221 219 215 214 214 212 207 201 203 203 207 210 214 211 210 214 217 221 230 239 208 215 214 210 221 226 230 238 239 264
237 239 239 247 243 238 245 240 239 247 249 236 236 237 225 222 219 218 217 215 211 208 209 227 256 237 227 224 223 223 223 221 216 216 218 220 221 223 228 239 238 215 215 214 214 219 224 225 235 241 255 262 255 254
236 229 235 244 237 243 255 243 245 246 244 239 239 234 230 231 231 225 224 218 218 218 215 212 212 213 210 236 253 249 247 247 247 244 245 244 216 216 217 220 215 215 221 227 231 242 239 253 256 259 252 255 269 271
225 225 246 242 251 255 240 242 242 254 244 244 242 246 242 239 235 230 230 232 230 226 223 223 226 224 221 217 216 217 217 214 215 221 226 220 219 224 228 233 236 240 239 239 251 251 262 253 249 257 265 249 255 257
250 250 230 243 242 251 250 251 248 242 250 254 254 233 233 240 238 235 237 237 237 237 234 232 232 232 231 229 225 221 222 225 230 235 240 238 237 238 235 232 241 250 240 249 266 254 249 248 268 270 254 255 274 288
241 240 235 244 242 243 257 288 250 251 251 245 250 255 259 251 243 244 242 243 243 242 242 244 244 241 240 243 245 244 244 242 240 237 238 241 239 238 244 247 247 256 267 259 254 250 258 259 257 251 251 289 302 309
241 243 248 249 265 229 231 229 255 277 268 255 245 241 232 255 249 260 255 253 246 244 243 244 244 245 246 244 243 245 242 237 249 248 248 244 244 256 256 260 269 260 256 247 267 250 250 268 257 283 297 313 314 319
247 234 257 245 270 240 251 251 272 280 276 268 265 270 262 261 255 254 242 248 251 253 253 251 250 252 251 247 243 252 255 256 255 253 258 263 262 269 268 260 255 269 271 262 259 263 277 297 302 313 316 321 327 342
245 271 273 268 264 272 268 282 259 233 263 277 271 249 262 270 271 268 264 266 264 265 263 260 254 251 252 254 256 260 261 263 270 282 276 264 254 257 259 250 258 258 260 278 291 303 301 308 319 320 327 341 380 399
257 255 280 271 262 275 263 254 271 274 262 276 252 264 289 280 269 271 271 271 270 271 267 268 266 266 268 270 277 279 271 277 252 261 268 269 265 264 264 261 278 286 296 305 310 317 315 320 326 340 388 396 389 387
293 297 298 306 308 302 291 287 286 288 243 243 267 291 285 274 259 253 262 308 313 294 287 286 287 288 284 277 287 286 290 268 252 254 274 287 279 279 280 290 300 314 324 325 319 324 334 347 396 394 390 390 386 374
304 291 288 291 298 299 296 297 296 287 288 302 297 268 287 289 296 269 294 294 296 288 290 284 273 279 276 272 271 269 275 272 272 274 280 286 290 301 318 332 333 330 334 354 366 396 394 391 389 386 379 371 383 375
321 324 330 333 324 320 311 305 301 302 306 305 301 298 297 295 299 298 293 293 286 285 284 286 284 283 287 289 294 295 289 293 293 299 306 322 338 337 340 376 400 399 397 393 388 384 380 374 369 380 379 365 375 361
316 321 324 330 336 371 346 344 341 340 322 327 324 316 310 308 306 304 304 304 303 303 303 305 304 306 307 310 313 318 338 339 339 397 399 405 401 390 387 385 384 383 378 372 370 376 378 373 364 359 375 362 373 418
301 308 331 323 317 337 382 384 354 353 353 360 358 352 350 349 346 343 343 344 346 348 348 346 352 357 406 401 398 398 396 391 387 385 382 381 374 371 369 367 365 370 377 377 366 358 363 372 360 376 402 394 411 394
368 370 375 395 389 393 391 308 304 313 346 325 325 325 329 333 337 367 354 367 387 386 383 382 381 378 374 374 374 377 375 377 379 383 384 383 385 382 378 373 360 360 367 370 362 363 374 395 392 387 394 386 396 367
369 380 378 374 372 375 371 372 377 381 383 383 386 387 389 393 395 393 389 387 384 383 383 383 381 381 378 376 374 370 367 366 364 364 364 364 367 368 370 367 363 363 370 381 388 388 384 374 373 371 365 365 376 360
373 372 372 371 372 381 378 373 376 377 379 378 375 373 371 365 365 370 369 366 364 367 369 369 372 376 372 368 366 364 363 362 361 363 369 370 372 372 375 375 374 370 366 363 359 359 359 358 358 358 357 352 348 343
355 363 326 314 322 327 371 365 361 358 359 363 376 376 369 359 351 349 378 374 368 366 360 359 355 355 358 363 376 375 369 367 380 392 369 359 354 359 378 456 447 432 417 404 389 380 376 373 373 377 424 427 443 447

GFSWCAN_2pvu_pres_036.txt.gz
Presure
417 419 428 442 440 468 450 440 434 454 498 520 389 361 331 315 295 272 283 269 253 154 158 247 251 234 265 239 204 239 235 232 208 214 208 213 214 216 209 205 203 201 190 203 204 198 195 200 127 196 198 199 201 200
506 523 503 496 485 468 456 439 455 485 509 253 378 327 318 335 289 192 267 268 250 193 223 205 275 174 267 237 218 219 227 234 214 219 205 216 206 213 212 204 198 202 191 196 202 202 201 187 199 199 196 201 200 201
403 435 469 486 491 502 518 509 527 314 469 247 369 312 310 289 270 274 267 274 222 224 202 255 195 244 240 233 211 222 215 232 214 214 209 211 205 216 210 206 198 200 193 197 199 199 198 198 197 195 201 198 201 189
338 348 372 406 489 532 494 499 420 378 348 306 297 294 302 281 273 281 265 216 203 187 222 221 246 256 240 231 195 232 225 232 215 211 209 208 215 205 214 208 204 199 200 188 198 202 206 204 195 198 196 191 192 192
305 307 304 307 309 312 310 311 304 299 298 295 295 285 301 277 273 257 258 233 228 263 163 272 259 238 231 221 223 236 229 231 219 210 208 208 214 208 214 210 205 200 202 201 171 200 203 201 198 191 189 191 192 197
275 294 291 284 286 289 288 288 280 280 278 279 279 274 289 281 278 257 252 246 260 166 271 260 260 232 227 221 214 234 234 224 220 213 209 208 209 207 209 211 207 204 208 203 207 208 202 200 197 197 193 180 200 196
288 273 276 277 272 273 281 275 277 275 269 289 265 305 291 260 263 266 267 267 191 280 244 257 242 242 233 220 218 229 234 224 221 211 208 211 210 208 201 209 204 206 203 205 210 207 204 205 192 194 198 198 186 186
265 262 254 259 263 267 272 259 258 260 269 263 288 270 280 268 266 244 274 208 255 266 255 256 246 222 204 225 239 228 232 223 219 212 206 209 210 210 204 200 199 201 204 207 208 206 204 196 201 200 199 196 206 203
261 260 260 262 265 248 275 280 287 274 285 283 268 272 270 258 262 252 202 278 258 261 249 252 242 204 230 213 240 237 230 226 222 211 217 206 205 205 201 204 203 198 197 194 192 190 199 200 200 198 205 207 209 203
226 238 237 258 260 267 262 255 259 265 267 265 269 267 257 252 252 246 271 277 260 250 252 221 209 211 221 231 237 229 226 231 223 206 209 211 205 201 201 201 208 209 202 202 200 201 202 199 208 210 210 200 203 192
248 245 252 261 257 259 253 256 259 255 262 257 259 259 259 259 263 250 247 257 226 247 249 239 218 222 227 242 230 220 220 230 218 205 207 196 191 200 207 211 204 202 203 204 206 205 210 213 203 200 202 194 212 212
251 247 237 253 245 245 249 255 253 253 249 248 253 247 242 249 250 244 244 252 238 259 243 226 226 232 230 225 223 218 224 227 215 204 210 200 196 198 202 207 210 203 199 200 213 208 206 217 196 203 216 213 213 219
252 253 250 255 254 259 248 253 254 246 242 250 246 248 246 242 238 247 236 235 242 235 233 232 232 229 227 224 224 219 221 223 219 200 208 209 203 206 203 204 212 213 210 219 206 197 210 213 213 212 213 216 222 222
238 235 230 245 247 250 248 250 248 250 247 246 244 234 231 250 247 218 225 239 245 233 230 229 231 227 220 228 219 183 223 225 226 224 201 204 204 211 213 194 203 206 193 214 214 211 209 213 222 223 222 224 246 216
235 238 241 239 238 245 249 242 240 236 248 245 247 249 245 238 238 242 239 223 222 224 237 250 235 224 224 227 221 220 222 222 220 208 206 216 214 213 212 210 211 211 209 208 213 222 222 221 223 232 247 213 226 228
224 228 228 233 240 242 241 246 251 237 237 237 236 230 234 241 233 224 216 220 227 243 254 221 220 222 225 227 227 227 228 226 219 216 216 214 213 216 218 221 222 223 223 225 227 229 232 244 226 220 225 233 235 237
242 240 247 241 230 233 243 247 245 246 242 243 231 229 223 231 230 219 217 214 214 213 212 245 246 245 229 229 227 227 228 229 231 231 231 231 230 227 227 227 227 228 233 251 216 219 225 227 231 239 237 233 239 246
220 227 239 242 245 245 244 239 240 245 251 248 242 224 230 229 225 229 230 222 220 218 219 219 222 219 220 217 215 214 216 217 218 219 218 214 214 214 214 213 213 220 227 230 231 231 236 244 241 237 248 249 257 257
225 232 237 238 244 239 234 250 246 234 250 250 250 254 248 241 236 235 232 227 223 223 223 220 226 223 224 223 222 221 221 222 221 220 222 225 228 230 231 231 234 230 234 240 249 249 244 245 250 255 260 257 263 261
238 236 217 245 236 229 233 238 245 249 262 246 247 249 248 248 248 251 249 238 236 235 234 234 234 234 234 234 235 237 238 239 240 240 240 239 238 236 235 237 247 255 244 240 248 250 257 258 257 255 258 257 264 266
268 248 230 232 225 226 232 247 243 248 248 257 259 251 252 262 263 262 258 257 252 250 248 249 249 244 243 241 240 239 240 239 239 245 250 250 249 251 249 249 256 253 252 251 260 257 248 263 259 249 269 264 264 270
245 259 252 257 250 249 252 249 259 251 252 254 248 253 250 257 252 252 255 255 255 253 256 259 258 255 255 254 252 251 252 254 254 256 257 256 257 255 255 256 257 259 259 257 257 259 252 274 275 269 264 270 266 294
256 244 247 248 244 250 250 243 242 248 239 243 261 252 241 238 227 227 277 264 257 251 250 250 247 247 247 250 253 255 256 258 261 261 258 255 253 256 257 261 263 259 266 270 271 278 277 287 269 283 272 269 297 320
267 283 269 263 237 234 252 250 267 265 258 251 252 256 241 238 239 243 268 276 272 279 277 271 269 265 260 259 259 265 267 267 267 269 272 272 271 267 254 268 271 274 286 291 297 296 286 277 275 288 310 319 348 396
260 256 261 236 261 315 278 298 283 232 274 268 273 277 272 272 265 263 274 280 260 243 271 273 272 272 272 271 273 271 274 274 273 270 270 271 276 284 294 301 305 302 281 274 265 280 310 309 315 348 393 408 399 391
333 340 330 344 328 303 279 294 290 291 281 269 277 285 279 272 268 279 261 264 273 273 265 273 280 257 259 259 268 289 285 261 260 263 263 262 269 279 292 295 306 309 311 315 317 328 369 409 405 395 391 380 373 381
324 327 323 328 332 333 333 348 335 302 303 304 303 303 305 308 313 311 300 298 295 293 249 251 261 259 259 283 305 308 306 310 311 309 301 304 308 309 314 318 319 335 382 405 396 392 384 381 377 376 380 386 375 367
333 322 319 327 324 325 326 336 338 337 346 347 352 346 344 322 314 311 314 317 316 314 315 316 320 320 322 323 318 318 320 322 317 320 343 348 353 387 395 389 385 383 381 381 382 387 388 384 370 363 361 371 374 365
310 307 308 312 317 363 393 391 315 311 314 323 346 334 336 379 370 360 357 356 356 368 371 368 371 362 363 361 358 356 395 358 393 392 393 387 386 384 387 388 390 389 383 373 369 365 363 370 375 370 368 373 382 381
345 370 377 382 386 381 333 387 389 390 391 391 394 395 391 393 392 335 322 353 365 364 369 368 366 371 401 400 397 394 391 389 388 387 385 384 382 380 376 371 370 368 368 366 365 370 374 372 369 366 365 405 467 461
376 379 379 389 386 385 384 387 388 387 387 391 393 390 393 397 399 400 397 394 391 389 385 383 382 380 379 377 375 375 374 381 378 377 374 367 367 368 369 372 371 372 368 394 395 371 360 350 348 404 392 384 378 372
334 335 333 365 369 372 376 387 364 362 382 384 380 377 374 373 371 372 375 372 374 374 373 366 363 372 375 375 368 365 364 361 363 374 375 372 371 372 380 394 396 393 389 375 357 350 352 366 395 388 375 363 355 350
368 379 386 387 385 377 376 373 371 369 364 318 318 371 380 378 368 360 354 354 363 376 372 365 359 356 355 358 373 378 372 365 365 374 382 380 375 371 368 368 369 369 377 377 408 403 398 393 389 387 385 383 383 394

GFSWCAN_2pvu_pres_042.txt.gz
Presure
351 343 344 345 338 334 332 322 352 351 343 352 373 402 125 186 374 295 313 311 290 257 245 256 241 230 239 238 234 228 217 195 209 194 203 213 221 233 255 251 242 230 209 209 206 203 210 203 207 203 201 197 200 199
356 349 344 338 337 334 340 351 343 344 149 357 381 427 435 564 370 356 292 308 300 280 270 243 254 156 151 221 233 220 203 196 202 201 217 221 217 236 222 245 239 227 210 208 204 200 204 211 194 207 205 198 202 195
365 353 354 354 355 348 311 339 342 339 369 174 373 417 430 570 357 334 295 283 283 282 275 271 249 154 155 220 212 205 200 205 208 212 221 223 228 233 219 241 195 230 212 215 205 203 204 209 210 207 206 206 200 199
385 377 368 266 126 362 235 231 252 399 400 322 408 312 315 294 348 319 297 249 220 282 282 261 145 279 162 227 225 233 230 239 225 224 187 235 201 191 198 229 189 232 226 210 207 201 209 204 201 209 209 203 203 201
451 428 248 402 322 329 331 392 242 418 410 400 412 423 144 298 333 307 267 266 276 268 269 266 277 264 265 256 168 228 240 253 245 242 231 240 238 220 185 200 230 233 228 219 216 205 200 207 212 204 206 205 205 204
512 489 458 426 414 398 410 425 458 422 406 481 523 425 354 337 320 286 270 263 278 279 278 273 268 265 262 258 255 247 246 245 248 227 239 241 203 239 221 235 218 223 223 230 226 211 211 203 206 214 202 200 202 206
493 509 486 489 447 437 446 444 329 448 494 518 380 365 318 295 271 269 268 157 266 257 186 244 255 268 245 236 238 246 227 243 243 248 238 237 231 249 231 230 216 213 220 222 229 221 213 210 208 210 210 210 208 199
384 482 524 480 475 462 447 464 485 499 445 354 320 282 289 279 271 259 260 268 261 268 242 228 216 202 228 211 207 209 194 230 233 252 233 212 231 239 231 226 216 215 223 228 223 229 226 215 211 210 209 210 210 208
355 383 409 538 546 520 517 508 518 364 303 292 267 242 254 231 251 248 266 244 220 267 249 241 237 222 215 196 204 214 199 184 208 233 242 250 235 235 226 225 200 215 220 226 229 226 228 226 219 215 209 210 208 205
294 291 231 318 310 310 324 315 313 296 254 239 252 252 244 245 251 234 234 246 243 244 236 237 245 231 219 179 228 216 212 213 240 221 229 232 250 246 240 233 218 214 219 224 224 227 225 228 226 221 216 214 216 204
250 290 276 284 294 275 244 242 255 268 260 242 241 238 232 233 243 228 233 234 221 245 246 242 218 201 225 244 196 235 198 178 210 230 237 245 249 240 235 228 218 214 218 222 226 229 230 232 230 228 222 208 210 210
277 246 251 280 281 271 270 259 237 255 213 225 259 248 250 249 253 244 237 228 231 230 244 234 191 199 227 245 231 253 189 241 222 225 227 233 247 244 242 226 222 222 215 219 226 232 223 221 225 229 228 218 207 210
280 242 255 240 239 265 253 265 245 256 258 230 238 258 260 227 267 247 255 226 261 247 245 243 218 216 239 254 234 225 246 255 252 249 237 230 244 213 230 211 213 219 220 220 224 230 224 215 220 223 224 225 228 227
259 285 275 249 244 236 234 244 241 247 241 266 266 236 247 277 260 242 240 245 236 238 224 251 233 216 225 228 228 226 228 285 282 266 252 252 251 215 229 218 221 221 225 236 239 234 226 223 221 220 220 222 226 229
242 248 251 275 272 257 250 258 243 237 231 232 257 254 283 237 243 245 240 245 243 229 239 239 226 228 235 237 246 254 252 268 260 254 254 249 237 247 240 239 225 227 231 228 228 227 226 226 226 225 224 227 225 228
250 241 239 247 243 248 266 276 268 261 255 264 251 267 287 255 232 230 248 242 239 236 233 235 235 231 237 264 264 249 249 250 266 250 239 242 243 238 223 226 232 234 230 225 223 223 224 226 228 232 232 231 229 229
240 245 245 241 239 248 242 242 246 248 253 250 250 266 264 254 249 256 261 247 252 256 252 250 251 238 243 261 262 255 248 236 232 236 240 243 241 236 237 235 234 232 231 230 231 229 228 231 233 232 231 231 231 239
233 235 246 245 246 241 241 248 248 243 243 243 242 244 246 252 260 265 258 256 256 256 256 258 256 251 246 241 244 246 240 231 240 243 248 246 233 229 227 228 233 238 240 236 236 235 232 227 230 247 245 233 232 233
237 237 230 227 228 246 238 238 236 236 238 236 241 244 244 246 244 242 243 242 242 235 238 249 251 250 248 242 229 227 243 251 251 236 231 226 231 234 240 248 249 248 247 248 246 242 238 230 222 224 236 237 238 245
219 238 239 237 218 217 227 241 248 235 242 244 246 247 240 237 243 246 246 247 247 245 242 241 242 242 242 244 245 246 247 246 240 233 228 223 223 223 225 225 225 227 231 233 235 236 236 238 242 246 250 252 257 260
242 243 227 240 238 246 246 240 237 239 243 247 235 235 241 247 250 244 238 238 239 234 234 236 237 240 238 237 236 235 236 237 241 242 241 239 239 242 244 242 240 239 243 246 250 254 256 259 264 265 266 266 265 257
242 249 236 238 240 232 217 243 239 242 242 242 253 252 251 241 237 241 237 241 243 245 249 252 253 254 252 249 242 241 241 241 241 242 246 251 254 255 253 257 255 265 268 268 265 262 260 262 270 284 286 286 285 283
242 241 250 262 255 249 258 265 255 252 255 258 242 247 246 251 260 257 250 246 252 256 253 250 252 255 258 261 262 262 262 262 261 262 262 264 265 264 263 257 254 249 245 249 256 256 259 275 284 285 284 278 288 288
266 255 249 264 260 254 243 247 249 248 252 251 249 257 269 271 273 272 272 263 227 233 243 250 255 258 259 265 270 259 259 260 259 257 257 253 253 256 257 259 260 273 282 281 279 283 269 282 270 267 273 279 285 288
202 206 265 258 264 211 217 268 259 245 219 218 222 266 256 265 255 233 239 244 247 257 269 270 269 267 263 256 250 247 253 253 256 259 260 260 263 268 274 276 277 255 270 268 287 282 286 292 297 302 318 322 320 320
271 271 257 264 270 279 272 264 270 283 283 266 264 267 274 268 267 273 288 283 277 264 266 271 275 279 281 276 269 268 266 263 249 260 269 276 281 291 296 294 292 298 295 295 297 301 305 312 317 329 351 389 401 401
331 337 335 339 331 321 295 316 322 329 337 357 355 340 309 286 299 302 287 284 286 289 288 286 287 278 275 271 278 283 284 287 286 286 289 293 309 323 310 303 306 310 312 314 319 346 358 363 387 403 401 398 394 389
329 329 318 345 337 329 324 327 326 331 331 344 349 348 349 346 362 365 373 368 364 365 363 361 352 321 315 303 303 359 357 342 334 336 333 335 355 353 358 355 354 352 403 407 406 402 399 395 390 383 382 383 380 376
314 319 325 325 333 325 340 337 353 319 321 327 341 387 411 415 409 352 344 343 343 353 352 346 345 350 357 353 340 338 337 336 333 331 326 336 330 413 408 404 402 399 397 394 390 386 382 378 375 374 377 385 387 382
311 314 325 327 334 332 343 345 405 400 395 391 392 392 392 380 374 395 401 407 409 410 409 407 407 410 414 417 414 413 410 406 404 402 400 397 392 391 386 384 381 377 375 376 376 378 382 386 386 382 380 383 403 416
326 328 325 328 339 347 397 400 395 398 399 399 399 399 406 410 409 409 407 401 399 397 393 394 392 387 384 380 381 388 392 391 387 376 374 376 373 378 379 379 382 385 387 387 388 398 414 445 462 468 470 471 472 473
319 328 332 342 369 384 403 400 394 388 391 390 389 385 380 379 381 376 369 369 377 379 381 382 382 379 371 363 372 384 388 380 378 378 382 387 386 387 407 440 482 493 503 511 516 516 517 512 508 503 497 493 489 485
333 335 359 393 398 393 387 375 396 422 375 373 372 384 380 371 374 388 376 371 373 372 361 351 345 344 364 374 378 386 383 377 384 430 487 511 528 531 531 529 524 520 516 512 508 505 502 500 499 495 493 494 504 506

GFSWCAN_2pvu_pres_045.txt.gz
Presure
375 363 345 341 331 320 316 306 317 314 308 315 320 329 344 383 413 290 302 253 322 260 251 208 258 83 138 188 215 225 213 209 207 200 217 213 199 212 211 220 203 205 215 248 252 243 223 212 211 211 208 214 216 167
348 344 338 333 325 318 312 314 313 317 321 325 329 322 363 390 425 170 373 292 321 308 262 260 257 247 237 237 211 221 221 215 210 215 218 207 212 214 212 195 203 217 223 235 246 205 231 222 210 209 208 207 211 213
337 329 337 332 320 321 320 312 317 312 326 327 337 351 352 379 402 470 498 330 288 312 300 255 244 239 237 237 245 236 218 218 226 211 220 218 217 220 220 219 198 209 223 239 241 200 224 225 212 216 204 205 205 208
343 336 336 335 326 320 319 319 329 326 326 326 347 349 352 375 425 510 429 348 285 300 293 289 270 245 246 245 241 242 241 223 213 223 223 221 223 216 217 198 197 214 220 234 243 227 198 230 223 214 211 206 208 210
362 357 349 344 341 339 338 335 332 334 128 239 349 353 365 395 449 554 347 335 279 277 286 287 291 261 240 207 157 231 219 226 220 216 222 224 221 215 206 199 180 225 238 213 201 238 222 229 226 217 213 213 207 203
388 365 360 326 346 211 343 180 347 346 347 141 352 377 444 437 578 593 341 312 266 276 278 137 282 276 146 242 150 167 207 200 221 220 219 223 217 200 201 236 220 237 236 243 188 226 232 227 224 225 222 217 214 211
443 404 378 139 366 130 365 363 364 369 398 433 428 419 426 532 543 343 308 278 283 296 270 283 296 306 289 277 173 222 228 224 216 170 218 210 207 224 244 239 243 234 238 228 236 228 232 196 221 223 217 218 222 216
492 436 418 176 409 323 411 421 434 411 402 409 411 471 481 455 373 310 287 265 261 256 269 271 269 270 273 277 284 283 264 258 234 225 221 237 241 235 235 229 231 231 242 230 241 235 233 224 212 217 224 228 224 224
494 488 453 437 435 437 415 403 411 404 470 462 502 502 343 306 297 287 278 271 265 177 252 251 272 265 229 264 252 245 237 261 259 259 255 246 246 235 221 219 180 236 234 221 229 231 226 204 216 215 223 232 227 223
506 502 497 416 471 430 480 491 502 503 402 341 324 315 308 300 284 242 258 269 268 275 257 268 252 232 248 236 216 230 219 219 211 221 175 223 218 223 223 232 236 234 236 229 228 232 231 227 227 228 217 217 222 223
424 484 470 451 362 345 339 329 311 304 295 288 281 274 246 244 239 244 258 265 265 252 244 252 256 247 237 228 229 228 220 230 217 220 225 203 177 181 239 220 224 237 236 239 242 239 236 235 231 240 213 218 223 223
282 250 307 292 270 265 282 279 266 268 254 248 252 287 266 255 243 240 248 253 235 244 245 236 257 232 222 217 212 202 206 189 197 190 208 218 223 243 224 218 219 223 229 231 242 246 247 246 241 227 221 219 220 222
248 267 242 258 240 255 251 247 252 255 252 227 252 245 246 209 252 248 238 245 250 255 220 243 230 210 200 212 203 227 200 230 241 215 214 217 186 194 226 206 212 225 217 223 236 238 242 243 242 215 225 225 224 226
237 241 268 268 229 217 249 233 253 240 202 215 248 235 242 209 242 246 239 230 248 253 234 235 227 220 243 237 228 246 225 225 247 221 190 219 221 235 244 250 247 239 244 245 227 235 248 214 249 232 224 224 225 231
241 239 238 242 259 255 227 249 241 254 253 217 248 251 266 217 231 247 236 221 233 241 209 246 243 248 239 224 254 193 210 228 236 244 237 219 217 220 224 225 258 259 255 249 250 251 258 256 251 237 235 225 232 231
232 232 241 259 235 234 267 228 266 229 259 252 266 228 258 240 260 228 256 230 246 243 234 224 252 248 257 264 255 215 216 216 231 229 226 229 231 236 262 258 264 260 260 257 249 242 233 231 225 231 238 238 236 235
268 244 232 228 228 227 234 233 233 236 230 229 239 291 237 273 261 235 291 255 252 262 242 239 259 227 229 255 259 249 226 222 230 228 233 239 254 271 257 245 249 258 257 252 244 238 242 242 241 238 235 234 237 239
238 257 259 255 241 232 231 264 228 226 242 270 236 244 242 238 234 237 229 233 260 268 256 250 238 237 233 235 242 230 230 237 231 231 238 258 259 257 255 250 246 243 243 240 238 244 246 237 235 237 238 241 234 226
234 243 240 239 239 256 248 255 258 251 255 253 247 245 247 257 268 273 279 284 252 239 241 244 244 243 247 249 248 251 255 253 255 249 248 248 243 246 250 244 235 233 239 246 247 236 230 224 222 225 231 235 238 242
241 232 233 238 239 241 239 233 236 240 241 239 241 242 243 243 242 243 243 249 261 262 254 248 251 253 254 256 254 254 257 260 260 250 247 248 247 242 227 235 246 248 248 244 235 235 236 236 236 239 243 246 248 253
239 228 236 240 227 224 233 234 235 241 234 234 236 238 236 238 238 240 241 242 243 241 240 241 240 241 243 244 243 241 245 249 249 247 246 245 246 248 246 245 240 243 245 245 245 245 246 247 251 259 262 263 265 263
231 234 237 241 244 238 240 242 236 228 233 235 236 234 239 243 244 245 245 243 241 238 242 243 245 246 246 246 246 246 246 246 246 247 247 247 248 247 248 248 248 250 254 261 264 266 266 269 269 267 262 253 256 261
241 240 240 241 238 241 247 250 245 242 247 247 247 246 242 243 245 246 246 244 240 240 247 248 247 249 249 249 250 250 251 253 254 258 260 261 261 260 260 259 259 260 261 262 261 259 258 256 259 260 260 263 275 274
251 253 249 253 253 251 245 241 244 253 257 263 269 268 260 260 259 253 254 254 241 241 249 250 248 248 255 262 263 250 242 236 236 243 245 249 254 258 260 264 270 275 264 255 254 260 260 259 264 272 277 279 284 291
255 257 256 259 258 254 255 251 248 255 261 260 260 263 262 251 248 252 251 251 251 251 250 248 253 261 267 270 270 267 266 269 271 274 274 274 274 272 272 249 275 276 276 275 276 278 280 279 286 292 290 297 305 324
256 250 260 263 265 260 256 254 261 267 264 263 265 262 251 234 264 271 269 237 231 248 257 267 266 266 268 271 269 269 268 273 274 279 277 271 272 265 269 267 269 270 278 282 283 289 295 300 310 325 338 342 352 348
265 266 267 268 277 281 288 321 320 341 348 342 339 350 357 358 363 328 303 292 292 287 285 284 309 291 284 285 282 284 286 285 292 306 301 294 294 297 301 302 308 316 322 328 340 344 358 356 352 347 336 331 382 401
276 319 322 321 330 329 319 318 328 328 330 331 335 340 347 352 355 353 355 356 357 354 350 347 366 369 372 373 370 366 371 370 367 365 359 364 360 357 354 353 350 351 350 345 338 320 367 394 401 398 395 392 388 384
315 335 330 317 315 309 304 309 335 337 357 329 327 424 318 352 407 409 414 410 400 405 407 409 410 410 410 391 363 357 347 338 340 345 349 350 340 336 415 413 410 408 404 399 397 391 387 387 390 398 402 405 408 412
307 315 321 324 332 330 327 336 341 348 384 405 413 418 419 417 415 417 415 415 413 409 407 405 397 408 411 414 416 416 411 406 406 404 400 398 396 394 386 384 386 385 396 410 466 500 538 538 537 533 529 524 520 515
308 308 321 320 317 332 333 340 377 388 420 411 400 393 397 400 397 396 395 392 386 391 394 391 389 390 391 392 393 391 390 390 390 385 381 374 383 389 387 481 544 509 455 396 383 374 371 487 502 505 507 509 510 509
326 313 313 320 334 337 327 377 397 404 395 389 374 370 427 380 376 372 385 381 372 371 374 376 380 383 373 379 356 356 352 341 338 341 385 468 534 474 418 393 378 367 359 355 355 360 366 491 509 536 670 653 632 613
313 321 330 331 349 371 399 396 389 379 381 386 445 431 404 360 350 365 366 362 400 398 398 396 393 349 381 378 379 382 381 410 524 504 416 394 377 367 358 354 356 366 368 380 393 386 374 376 496 575 651 656 650 635

GFSWCAN_2pvu_pres_048.txt.gz
Presure
420 455 445 436 402 371 353 337 323 310 310 304 303 309 311 325 357 391 540 387 327 303 284 243 190 232 229 228 175 200 203 211 215 172 192 206 205 196 195 197 197 208 209 212 214 211 208 219 232 254 243 229 216 208
371 373 367 355 347 336 335 324 310 308 300 305 303 300 312 324 339 357 420 470 383 306 310 268 247 242 218 218 142 136 228 176 201 155 211 200 203 200 197 196 205 207 197 208 197 220 218 210 222 240 247 231 230 216
345 339 337 338 335 320 308 305 310 307 305 303 312 314 315 324 330 355 133 513 142 273 310 301 247 241 157 211 145 149 234 223 219 221 218 217 217 211 197 200 204 215 217 221 212 222 223 211 220 243 248 208 227 231
331 333 327 320 317 304 316 316 308 306 300 311 313 308 204 288 324 341 282 442 365 347 234 302 263 245 241 126 229 232 236 237 227 223 216 212 211 209 209 216 213 217 210 217 218 219 222 205 222 245 240 235 235 232
342 327 328 328 322 312 309 313 307 305 316 312 311 310 312 326 337 367 393 423 404 336 294 307 309 256 240 157 229 233 238 238 233 222 218 210 211 215 211 217 216 213 229 222 222 221 209 208 225 226 239 217 228 230
337 341 323 318 311 317 315 308 306 310 312 318 318 320 326 342 353 380 481 340 461 330 284 306 310 274 249 238 232 234 234 234 235 231 229 225 221 226 227 219 216 218 221 221 219 212 185 212 221 229 240 195 222 224
350 337 333 335 326 228 318 313 314 314 310 323 328 327 339 356 361 394 494 471 412 319 277 300 299 294 264 243 235 237 237 230 234 229 157 232 231 234 224 224 219 213 208 216 218 213 208 232 239 234 228 228 230 223
369 360 352 334 345 240 340 334 331 308 236 333 334 355 352 289 378 418 485 452 325 295 273 292 287 288 282 277 243 231 235 192 230 199 231 208 227 229 230 222 220 219 215 218 212 212 233 227 231 229 234 225 233 228
370 377 366 310 165 309 355 353 353 357 312 354 353 356 366 393 426 483 471 335 307 277 264 296 291 287 287 262 255 271 241 235 230 168 228 230 229 231 222 220 221 213 218 215 213 227 227 227 227 233 242 222 220 229
433 430 421 415 405 396 406 416 438 437 479 459 444 442 426 443 583 370 331 310 295 266 270 275 280 291 284 272 172 262 272 268 243 244 221 224 229 228 221 221 237 225 225 230 232 226 221 221 222 230 235 238 237 237
433 467 423 416 404 398 398 405 408 412 404 426 448 458 388 334 319 304 283 271 270 270 257 277 152 279 262 255 287 278 287 278 272 277 271 244 260 235 239 233 234 235 234 232 232 226 224 231 231 232 236 233 228 230
334 337 332 336 334 347 338 345 340 349 352 353 331 313 306 291 293 277 279 255 285 232 257 245 257 245 237 236 225 227 244 237 245 240 226 241 207 232 231 225 230 227 194 180 222 212 244 211 214 216 219 225 212 216
294 284 285 285 306 232 295 298 298 301 298 288 279 290 287 276 265 276 245 245 255 253 232 254 245 227 229 233 225 229 228 232 234 233 232 190 217 218 216 207 219 230 241 230 229 235 207 215 214 212 229 243 220 227
264 237 281 272 257 220 213 261 235 262 209 257 230 204 242 217 260 253 250 251 235 265 252 229 230 246 254 233 238 242 224 229 220 222 224 233 189 233 234 233 225 211 210 206 195 204 219 225 231 224 230 238 262 263
240 240 239 229 279 235 239 222 241 225 228 241 251 228 212 241 226 234 258 213 200 255 240 239 242 245 241 238 235 214 217 222 204 226 216 221 212 231 231 228 236 220 232 234 230 236 218 214 217 231 264 266 256 259
250 232 234 235 240 228 253 260 203 222 212 245 251 247 209 227 198 244 218 248 225 248 249 222 244 222 252 237 226 233 230 232 205 225 230 222 232 217 218 220 227 237 246 221 217 212 227 238 257 259 253 253 245 238
239 242 236 229 244 266 217 262 223 257 209 270 252 209 224 255 210 260 258 239 237 263 218 246 237 245 246 243 235 234 218 230 230 214 232 203 205 238 229 245 220 227 239 248 200 218 234 242 259 250 248 243 250 248
237 229 229 235 236 240 265 219 230 238 233 227 228 236 251 248 243 235 230 266 226 230 275 282 239 203 261 216 231 241 235 239 234 245 230 242 245 211 208 207 212 215 213 226 233 236 236 244 247 243 247 249 237 232
235 233 233 234 233 236 238 262 264 234 225 233 254 238 230 228 261 228 234 235 267 239 239 260 254 245 261 249 257 229 247 230 252 232 251 251 260 261 241 231 227 233 233 246 250 248 253 246 241 251 244 238 242 249
245 247 247 247 242 241 239 244 232 254 231 233 233 242 232 232 236 259 234 244 277 282 256 242 237 247 245 234 247 262 244 254 262 251 248 242 244 247 246 248 253 250 253 260 258 252 252 253 250 248 249 249 248 247
230 229 234 234 230 237 249 248 249 244 252 254 256 257 254 254 258 258 255 239 246 251 260 264 271 275 274 275 259 255 240 240 242 243 254 250 254 262 262 253 251 248 247 250 254 253 251 250 251 252 251 252 259 264
232 228 230 233 228 228 231 232 234 234 238 240 241 239 240 240 243 244 247 249 248 247 250 251 251 252 253 253 260 262 261 262 265 253 249 248 248 249 250 251 251 251 251 251 251 252 249 246 252 257 251 250 253 259
235 235 237 240 239 239 238 240 238 239 236 238 234 231 234 235 240 239 240 242 239 237 238 241 243 241 245 247 248 249 248 249 250 249 251 250 249 249 248 250 253 254 256 259 251 247 250 249 245 255 262 268 279 281
237 234 230 232 232 236 239 239 241 245 245 242 244 245 249 252 250 250 248 249 247 245 245 245 247 246 247 247 248 248 252 252 252 249 251 249 254 252 253 252 257 263 269 263 265 269 271 271 262 274 269 279 284 288
246 244 243 242 243 245 249 248 248 248 250 254 259 257 255 253 253 253 261 273 273 272 269 270 268 265 250 251 252 252 255 258 264 270 271 272 273 273 270 271 254 254 252 253 266 275 278 279 281 283 291 294 314 315
249 259 265 265 261 218 220 261 257 257 256 259 261 264 241 263 267 270 260 263 268 267 266 265 269 271 273 264 259 260 263 255 250 248 249 250 255 264 273 276 275 275 278 281 284 289 292 298 312 336 342 366 363 361
275 272 256 260 257 254 252 254 266 271 272 266 268 276 330 330 331 333 336 367 367 371 373 358 341 296 293 290 285 281 278 279 281 283 285 286 288 291 292 317 330 344 346 351 344 353 365 362 360 361 394 387 409 408
256 251 262 272 262 273 282 337 338 337 345 349 362 346 339 336 338 332 342 337 415 415 424 419 349 363 364 385 366 367 365 361 361 362 352 346 350 351 344 348 350 347 332 327 333 407 411 411 404 398 440 439 436 409
279 277 270 321 319 319 324 333 331 325 323 329 327 329 337 356 408 427 435 429 426 424 418 405 406 405 405 416 417 412 407 399 394 411 422 423 420 419 417 414 409 404 403 398 397 393 407 452 423 406 393 383 375 372
277 294 306 308 310 333 327 325 319 323 326 328 338 392 398 416 420 410 398 395 401 405 410 411 411 413 414 414 416 421 421 418 416 411 411 409 409 406 403 398 393 384 384 472 440 413 396 383 371 371 385 388 413 403
311 311 322 324 334 335 322 325 325 329 336 384 403 416 406 398 391 384 427 433 414 381 382 385 388 382 379 378 382 384 381 383 387 378 371 367 354 349 339 425 401 418 401 385 371 360 366 368 363 360 359 366 405 390
333 339 339 323 316 316 325 330 336 376 391 409 398 386 396 403 443 445 429 414 388 363 364 364 363 364 406 406 403 401 400 391 388 385 383 469 436 414 399 382 369 358 360 367 363 359 355 357 356 353 350 359 394 380
312 312 332 330 325 326 338 369 374 399 391 394 436 442 444 437 429 409 361 404 402 396 385 384 382 378 377 376 378 405 513 480 428 404 388 376 365 357 358 366 368 369 375 377 376 374 374 376 379 380 354 355 387 381

GFSWCAN_2pvu_pres_054.txt.gz
Presure
406 417 392 415 424 420 410 450 418 380 380 364 419 379 335 323 310 292 298 296 300 310 89 82 352 318 269 244 238 128 241 231 233 222 217 207 216 216 201 214 206 212 206 197 187 198 176 194 207 188 223 205 211 204
436 413 410 425 416 400 395 397 385 382 382 425 365 331 322 307 299 297 289 290 305 316 484 474 355 317 268 247 243 234 234 230 232 221 167 216 214 215 214 202 205 204 206 207 188 182 194 200 205 214 222 205 207 212
403 429 408 396 394 392 396 419 421 423 372 340 324 310 305 296 293 287 294 297 304 316 475 400 343 317 272 243 234 244 242 230 234 141 225 220 216 214 210 207 207 194 204 204 203 206 212 204 190 210 201 200 207 206
372 372 367 363 358 360 365 369 351 331 320 311 306 292 285 286 281 289 300 310 311 318 363 469 346 318 274 224 242 238 241 239 235 232 235 171 215 216 213 205 195 188 191 205 208 198 204 194 210 208 209 211 209 216
326 329 335 335 338 334 324 320 318 314 308 301 291 288 288 289 293 298 305 316 354 383 412 424 355 326 288 254 237 235 141 188 201 184 189 233 226 219 216 212 206 203 202 204 198 200 209 208 210 214 209 213 209 214
311 309 316 320 315 309 311 308 305 300 295 287 287 284 287 295 293 302 312 319 344 360 444 392 368 330 313 254 239 235 236 241 234 234 129 228 231 231 225 215 209 208 207 201 200 204 207 203 213 217 202 213 217 211
319 322 308 307 297 300 292 284 290 292 290 286 291 289 291 295 299 304 304 314 177 370 512 412 378 331 318 160 245 239 235 238 222 241 237 238 233 233 227 215 210 209 210 210 210 211 211 212 212 203 215 219 217 223
309 306 313 310 304 296 290 290 291 297 297 294 294 291 297 263 303 304 210 218 340 389 468 399 374 335 318 269 204 191 225 236 243 125 209 235 229 225 227 217 214 217 220 219 214 212 212 212 215 222 230 221 226 223
309 130 295 304 303 303 301 297 293 292 289 290 292 192 309 305 308 316 314 341 340 183 394 386 366 335 319 282 262 251 240 250 131 144 214 243 234 227 221 220 221 222 224 226 225 226 223 221 224 221 226 226 222 222
323 311 305 282 307 302 301 302 298 301 298 306 310 311 311 316 323 332 336 363 359 378 432 400 411 335 314 285 265 252 245 235 241 239 245 240 229 227 227 225 223 222 216 221 218 217 219 222 227 224 223 217 221 161
329 323 272 312 317 314 312 307 304 302 305 308 319 314 319 322 329 349 356 369 384 447 422 430 408 325 309 296 269 253 248 241 240 243 240 232 230 228 223 217 214 221 220 220 225 223 223 221 221 222 221 203 217 219
455 395 340 336 327 321 321 322 183 325 329 334 342 348 357 374 381 420 412 407 361 373 364 365 341 332 308 297 271 264 255 235 238 243 236 232 217 222 147 150 225 224 225 225 225 219 210 221 217 220 221 218 221 215
342 365 455 457 429 394 380 364 397 375 373 366 366 370 380 396 487 495 389 383 432 382 360 335 327 321 304 290 290 268 256 247 241 239 234 230 218 221 225 226 218 222 225 223 219 228 227 216 215 213 212 180 209 219
298 294 296 294 295 297 298 298 298 295 299 314 305 306 322 339 384 398 349 383 429 400 379 368 332 307 336 291 269 266 256 246 232 241 240 201 231 232 231 230 229 225 227 217 229 231 216 216 215 215 210 224 233 220
283 264 224 287 277 275 299 287 289 298 291 292 300 292 289 298 302 303 319 329 341 340 335 334 288 302 274 273 272 264 266 270 268 231 255 251 250 196 217 217 233 211 204 199 219 228 253 244 230 230 224 242 224 239
242 256 280 263 237 271 277 249 282 276 274 274 277 270 266 266 264 270 280 268 265 261 260 264 283 278 273 276 267 270 263 246 246 263 256 254 222 252 258 231 258 260 256 251 250 247 246 236 231 235 229 228 223 221
226 250 243 279 255 284 210 239 255 217 267 251 212 248 269 261 255 200 254 205 264 263 266 267 221 260 261 257 257 262 257 262 250 249 256 252 255 248 248 260 258 255 256 237 252 244 252 252 230 247 217 243 222 234
262 224 214 228 215 248 203 265 275 235 212 261 219 202 258 252 256 274 245 239 197 256 252 258 202 260 246 229 265 242 252 252 245 252 248 260 255 253 254 251 240 234 248 260 251 239 237 236 236 236 237 238 223 230
235 239 262 224 233 236 253 256 268 253 236 237 218 217 230 220 221 261 253 250 247 245 265 252 240 215 217 255 241 247 229 227 234 243 251 244 248 245 239 234 238 252 231 224 224 238 233 235 240 242 245 252 247 245
237 231 243 234 233 229 243 230 224 241 263 236 223 223 218 249 234 233 217 221 223 231 250 244 264 236 244 212 220 226 250 244 251 243 246 245 248 254 252 253 253 250 250 255 248 247 242 244 246 235 226 226 222 237
244 237 225 220 242 244 233 232 226 231 224 231 275 222 233 241 240 241 230 219 232 234 228 256 235 225 275 231 258 261 239 230 234 267 258 251 240 259 225 244 252 249 225 246 225 227 241 235 261 262 260 257 252 256
243 255 250 245 245 243 242 248 236 237 232 247 231 232 245 231 230 227 234 239 233 233 231 231 234 235 233 226 228 232 249 242 264 228 232 241 242 243 251 225 226 236 243 244 248 253 262 250 251 259 257 257 276 285
239 241 242 240 240 241 243 246 246 250 251 249 249 258 239 231 242 250 258 232 236 240 244 245 250 249 254 258 254 254 256 257 263 271 265 273 244 249 259 258 263 269 283 273 277 249 263 278 275 267 268 267 268 268
244 244 243 239 240 241 242 242 238 239 239 239 241 241 243 245 244 236 236 237 239 242 241 240 243 242 241 240 245 247 243 250 253 253 254 259 260 264 266 266 265 265 268 265 265 265 265 266 270 271 274 258 260 274
246 245 247 240 240 240 241 240 240 240 242 244 240 240 241 243 244 247 243 245 249 254 255 256 257 258 260 258 259 259 262 262 263 264 266 266 268 271 273 273 275 276 278 277 279 280 278 276 278 287 293 296 293 290
236 238 237 231 228 228 231 238 242 254 258 252 251 247 246 244 245 252 256 265 280 288 274 277 290 298 300 302 299 298 295 289 293 297 295 292 290 290 292 293 291 288 288 287 287 288 288 290 293 297 305 346 405 440
242 234 237 238 244 243 243 250 258 259 262 262 259 260 253 273 278 286 293 299 288 281 290 354 357 394 394 395 390 395 419 418 415 439 414 442 418 438 379 374 374 377 379 421 406 432 436 438 440 387 354 385 384 414
245 253 245 242 242 246 240 242 254 259 283 280 283 276 273 282 287 290 290 354 365 368 375 372 372 431 436 427 425 425 424 420 415 414 415 414 417 426 431 433 435 437 429 416 408 408 411 407 400 397 394 393 417 411
247 253 259 258 261 266 270 279 270 263 262 286 297 293 287 291 345 352 348 373 372 384 435 433 432 436 427 420 410 400 404 438 452 392 392 394 397 400 400 398 393 390 389 390 390 392 411 415 413 401 393 387 380 378
254 258 260 260 269 269 263 268 280 289 286 282 300 330 336 340 354 371 401 434 436 477 472 467 460 456 451 446 442 432 416 408 395 373 377 389 404 404 404 401 400 411 407 415 401 393 385 378 372 371 370 366 362 361
253 266 274 275 275 278 281 278 277 292 316 321 333 332 342 365 367 433 415 471 452 440 436 433 431 425 421 416 409 387 382 394 394 392 386 383 420 411 411 398 388 378 374 370 367 364 363 363 364 379 387 389 388 388
273 275 278 277 277 279 287 308 313 318 332 323 332 357 367 397 421 410 461 442 421 409 403 398 395 393 392 390 388 385 381 380 474 428 403 387 375 369 359 358 358 357 357 364 370 373 379 387 387 382 379 379 379 383
279 282 284 291 300 306 316 325 325 317 328 348 357 368 428 412 419 461 431 402 392 389 385 383 381 377 379 408 506 427 402 384 371 364 358 357 354 357 361 363 362 358 360 366 373 379 380 376 374 375 386 389 295 331

GFSWCAN_2pvu_pres_060.txt.gz
Presure
318 387 418 416 420 410 410 413 411 418 426 411 408 402 410 421 366 351 344 348 242 364 364 301 283 348 350 227 289 297 279 284 240 356 295 280 265 272 269 246 173 231 230 221 222 205 213 194 217 196 195 192 127 199
392 375 385 394 417 418 476 463 482 422 392 398 408 415 384 394 355 353 345 339 353 354 347 323 318 344 294 303 297 300 291 286 331 340 293 290 278 262 255 251 239 236 181 221 216 213 212 208 214 203 206 199 191 190
364 367 381 381 369 370 386 418 476 435 422 421 402 404 383 392 359 351 348 339 345 341 329 131 322 282 279 288 280 302 288 290 343 345 298 287 277 260 254 244 241 227 228 221 220 211 210 203 207 214 203 190 199 189
370 373 388 367 359 372 374 400 396 395 425 432 423 414 411 416 413 364 350 222 331 323 318 324 296 346 345 275 303 295 283 292 397 292 278 272 270 261 247 243 237 227 230 224 217 209 211 215 211 211 205 198 202 207
382 415 369 357 361 365 367 362 367 378 374 381 383 377 364 364 366 344 339 330 325 318 325 339 287 302 283 288 298 286 288 323 383 317 289 284 277 259 251 244 233 230 222 219 207 209 215 218 212 208 207 203 203 204
333 351 386 377 379 362 350 357 368 383 368 352 349 348 343 334 320 324 329 331 326 321 311 322 309 294 294 296 284 284 284 368 359 288 276 274 267 256 249 238 231 228 221 212 209 213 214 212 212 210 209 210 213 210
305 310 316 319 328 327 326 325 328 328 324 323 321 320 322 319 319 313 309 311 305 301 298 294 289 291 294 285 286 280 300 345 355 286 279 269 250 240 244 233 231 227 219 213 213 218 214 213 213 213 213 213 209 210
296 295 296 300 304 302 304 307 309 310 312 312 309 306 303 299 296 291 292 291 288 286 279 287 284 292 296 292 285 301 311 381 385 285 274 264 256 255 241 231 188 227 225 222 220 217 212 211 209 213 212 212 206 207
285 285 285 285 284 283 289 289 291 291 288 285 284 281 282 281 279 283 281 197 282 284 153 288 300 300 302 302 306 311 373 443 318 291 277 271 254 246 241 232 223 210 230 222 219 218 213 213 213 208 209 210 208 208
290 283 281 282 284 286 283 281 280 280 280 280 280 130 280 285 287 286 286 285 285 290 298 326 409 407 325 328 384 381 366 397 302 280 271 261 252 254 246 132 243 181 231 231 222 222 218 213 211 209 207 203 203 209
288 289 291 295 294 293 294 294 294 289 283 280 283 281 286 292 289 292 297 305 309 308 267 365 361 319 386 436 358 375 351 364 298 276 267 258 261 253 242 189 233 235 231 231 226 224 223 222 218 214 212 210 209 210
294 292 290 289 292 293 293 293 295 297 296 302 299 302 302 301 302 300 307 312 240 214 323 341 321 217 314 317 343 339 343 313 293 281 271 266 261 249 244 236 235 234 218 232 231 230 229 225 220 218 216 216 217 219
329 344 347 355 356 349 343 335 331 325 322 318 314 313 312 313 313 317 326 337 411 345 349 321 318 297 296 306 315 314 304 301 287 274 267 260 252 252 244 238 233 190 235 235 231 230 232 232 230 227 224 227 225 221
288 291 291 286 277 278 280 315 385 387 391 395 391 378 352 333 333 333 353 452 361 348 313 307 307 302 289 283 299 310 290 309 276 272 266 260 254 250 244 239 234 232 231 233 233 231 230 230 229 226 227 227 229 228
269 280 276 269 283 251 284 284 293 379 391 393 405 422 437 414 375 369 370 373 318 310 302 301 303 290 284 244 247 295 302 277 245 269 262 263 246 250 246 239 227 223 225 234 235 236 235 232 229 230 221 218 226 230
269 267 266 267 267 272 274 277 282 290 314 352 365 342 348 403 442 365 455 331 326 299 303 305 300 301 294 299 240 281 294 307 262 266 262 250 249 246 243 243 236 231 230 232 231 231 231 231 231 230 230 229 209 221
263 267 255 254 264 260 258 263 274 280 279 281 282 285 294 295 302 312 304 303 305 281 299 325 323 326 318 321 310 300 308 303 326 272 266 259 257 254 248 248 239 236 236 233 233 233 232 232 234 233 231 215 232 225
262 230 229 257 239 256 254 267 271 267 273 269 270 266 271 269 272 274 277 282 281 285 285 292 283 286 295 300 306 316 295 302 294 292 275 268 261 258 255 250 247 245 242 235 239 237 239 243 236 242 238 234 243 245
250 278 256 209 258 230 261 250 256 253 245 265 248 259 263 262 258 255 260 261 260 261 263 266 269 270 281 273 277 274 284 242 251 249 247 233 230 260 254 251 224 249 252 249 250 248 246 232 250 249 239 239 261 259
238 240 256 255 241 201 203 218 216 220 237 223 249 262 268 243 252 259 260 255 251 254 255 258 264 263 261 264 272 262 265 272 264 270 274 262 265 263 262 262 260 260 256 252 262 245 264 267 268 265 260 268 271 259
237 236 240 237 234 246 248 253 254 238 229 221 218 244 224 206 245 270 240 259 256 228 222 256 261 262 261 231 203 251 250 251 261 253 263 272 258 258 262 262 261 261 259 262 258 267 263 266 265 271 271 273 273 247
227 227 228 237 241 245 236 231 241 235 239 241 225 248 246 228 240 244 239 230 240 236 243 238 233 234 240 244 250 254 257 244 253 254 256 260 260 258 272 274 268 263 262 270 269 261 264 244 243 261 250 255 268 251
245 242 234 240 242 244 239 245 246 244 245 239 234 242 245 240 233 226 225 234 235 236 237 235 234 236 239 241 238 235 238 248 246 245 249 253 257 254 261 265 272 246 259 263 271 258 268 286 282 272 280 277 262 263
242 240 239 237 238 239 239 238 237 235 234 235 233 235 238 238 239 239 239 241 238 239 239 241 245 249 247 244 243 244 245 248 250 255 261 261 261 263 266 265 266 263 263 263 265 269 272 272 273 275 275 274 269 271
236 232 235 242 244 244 242 241 241 241 240 237 236 239 239 235 231 231 237 239 239 242 244 246 248 249 250 252 255 256 258 260 261 263 269 271 272 272 273 274 275 272 277 278 275 273 272 276 278 280 280 281 283 285
242 247 242 244 243 236 236 238 245 244 240 238 239 237 243 246 248 253 251 250 249 249 251 253 258 266 274 287 289 298 344 348 347 348 350 346 301 298 296 295 296 293 292 292 292 294 298 301 306 346 349 358 438 436
245 239 242 243 249 252 244 239 245 241 242 246 256 260 259 252 249 247 247 253 266 271 259 283 293 330 365 429 459 456 466 475 478 474 468 462 453 447 438 431 430 426 422 420 420 419 424 416 411 407 406 411 416 417
243 246 248 245 234 245 242 236 245 241 234 242 244 251 241 250 268 267 266 267 280 295 314 326 349 437 453 469 480 470 462 464 469 468 468 466 461 458 453 451 451 449 444 425 411 401 395 402 404 405 403 400 396 393
251 247 242 243 244 245 240 236 252 248 254 243 250 253 272 259 269 275 287 291 303 316 331 346 448 442 479 464 442 426 421 424 428 430 431 430 429 425 416 407 394 393 397 398 404 410 397 391 386 382 380 377 380 386
241 240 240 244 242 243 246 241 248 250 254 250 262 260 268 272 278 290 300 307 318 332 349 437 449 455 436 421 408 403 396 394 396 398 399 399 399 395 391 403 407 407 394 385 377 371 371 368 366 364 364 368 388 392
242 241 236 240 240 244 248 247 250 253 261 262 268 272 278 285 294 302 312 321 335 406 425 455 440 424 412 402 393 386 386 383 380 378 378 427 431 407 391 378 371 365 364 366 362 356 351 348 347 350 377 384 386 404
244 245 244 249 255 259 260 258 263 266 268 272 272 283 290 299 306 317 329 338 434 421 449 431 414 401 484 482 475 472 481 500 444 411 391 375 365 359 361 360 356 351 347 347 344 341 339 338 346 377 378 389 396 381
257 259 259 258 254 260 265 267 271 275 279 282 284 296 307 314 325 334 342 428 414 442 425 476 512 509 496 473 434 413 395 379 366 359 359 364 358 350 343 340 338 337 335 335 335 340 339 338 370 377 378 402 386 367

GFSWCAN_2pvu_pres_066.txt.gz
Presure
311 279 289 292 289 282 282 282 283 277 277 278 279 278 278 279 280 278 282 206 278 278 268 267 269 264 244 273 278 114 234 149 295 268 313 290 284 289 286 297 328 319 316 284 240 252 260 275 240 220 227 109 211 214
376 375 384 399 388 328 324 325 322 321 335 342 349 410 409 298 292 292 285 284 276 282 175 294 289 276 278 285 261 267 284 283 293 150 277 306 292 290 279 288 356 321 290 191 261 252 234 241 273 267 139 235 220 220
411 423 406 370 367 370 379 388 382 386 396 401 396 387 386 410 417 404 324 278 283 274 281 291 288 287 159 240 268 263 132 295 124 302 314 270 314 294 284 294 337 296 280 274 261 201 203 210 230 123 194 236 225 225
366 361 366 366 364 374 378 376 382 392 438 437 409 398 377 386 408 379 370 379 371 334 303 303 301 120 239 250 227 325 240 238 393 273 279 201 303 282 280 275 300 312 272 250 256 178 239 251 263 245 259 255 214 223
416 384 368 361 366 393 387 409 416 407 418 443 407 438 386 390 392 383 363 353 349 350 217 312 345 367 370 184 366 107 107 102 347 347 334 313 312 210 278 307 298 294 290 268 188 253 254 263 280 285 277 256 233 224
309 320 341 360 370 408 439 398 383 395 431 404 402 381 386 385 390 404 377 342 340 349 333 323 340 333 333 236 343 351 356 360 345 345 330 304 296 281 279 296 294 280 273 289 272 266 274 261 263 239 240 250 212 226
296 295 306 319 345 380 414 399 388 386 410 405 397 377 368 373 380 323 357 323 324 317 332 329 336 339 127 323 334 324 326 336 341 365 303 298 295 242 265 293 305 269 290 306 275 260 261 255 251 251 246 244 236 225
286 289 292 296 306 327 423 382 384 382 400 363 355 353 367 356 372 356 323 329 227 321 336 325 335 335 340 329 243 322 320 331 338 355 297 290 281 268 274 296 291 282 327 300 306 276 275 265 265 245 241 238 238 228
282 283 285 287 289 300 312 361 367 366 370 384 378 373 378 384 382 338 324 327 332 333 353 339 328 315 331 339 335 329 321 336 355 361 308 286 284 280 288 295 294 286 300 387 283 273 271 260 252 248 244 243 236 232
291 290 286 281 287 282 275 296 310 323 365 350 351 350 343 333 334 335 332 339 333 327 323 320 309 319 326 332 331 340 339 345 339 305 293 290 288 284 292 296 288 293 326 158 159 278 278 260 249 240 235 236 234 229
290 291 289 290 291 282 281 279 282 288 301 306 312 314 313 309 305 306 302 300 304 301 303 304 309 313 306 313 317 320 337 302 287 285 285 280 288 286 294 297 270 288 351 323 300 278 259 243 237 241 238 237 233 231
301 299 296 294 292 288 287 284 280 282 278 284 285 285 290 293 293 290 295 294 297 297 297 262 294 293 292 299 300 286 153 278 273 275 272 275 285 286 288 275 289 322 324 324 229 269 257 247 246 239 235 235 231 229
351 343 329 315 307 303 300 286 282 282 281 285 284 280 277 285 282 279 276 280 281 281 284 285 293 297 292 287 285 279 275 279 278 272 286 289 282 272 279 286 313 322 329 163 314 273 250 251 244 237 235 233 232 227
339 340 340 352 355 339 325 310 303 293 293 282 286 285 280 274 277 276 276 290 342 338 324 360 369 375 307 278 286 290 291 284 281 284 279 278 275 248 273 291 308 297 323 323 280 272 260 252 244 238 237 237 235 235
301 306 312 321 337 369 384 378 350 327 305 296 295 296 291 287 288 286 293 312 297 307 313 315 283 317 314 314 323 305 294 332 334 343 357 329 343 320 297 295 285 286 296 300 275 262 255 246 242 244 238 238 236 235
275 283 297 314 317 324 368 386 403 420 360 330 317 301 300 300 307 304 299 292 290 302 297 294 289 296 293 294 298 299 298 291 293 292 292 311 318 315 308 299 296 290 286 285 257 252 251 248 248 244 236 234 234 234
267 266 270 276 288 302 317 328 409 423 442 445 353 340 334 320 325 327 303 286 287 290 289 280 284 293 288 279 283 275 277 274 286 282 276 280 290 279 281 286 284 284 289 283 268 261 257 251 248 245 243 244 245 242
256 255 263 264 263 268 279 286 301 316 324 386 403 403 374 327 323 303 294 301 291 278 300 270 268 273 275 274 280 272 270 270 271 271 269 272 273 282 293 292 209 193 283 277 260 257 204 253 210 249 247 247 247 244
203 251 249 243 249 257 259 265 272 273 278 277 282 282 280 275 272 271 281 276 276 290 292 285 287 284 286 285 282 278 275 279 276 276 282 285 286 285 281 284 290 285 246 282 275 266 258 254 255 256 256 256 254 226
245 240 240 235 247 246 247 249 256 256 254 259 261 256 258 257 256 255 253 250 253 249 248 246 252 252 254 254 256 260 264 266 279 269 272 273 282 278 286 285 287 290 291 294 278 276 266 264 264 261 260 259 258 260
246 247 214 202 246 239 229 233 234 236 259 250 255 246 242 237 236 242 243 236 235 233 234 237 239 241 237 238 238 237 236 238 242 247 256 257 258 260 269 273 275 281 292 296 296 299 294 282 282 281 266 269 270 272
235 240 238 234 231 227 240 235 253 256 254 256 238 222 253 240 210 237 251 243 243 235 237 235 237 238 238 237 237 239 242 238 242 240 239 244 246 248 252 256 262 266 269 274 281 286 290 293 300 303 306 307 306 305
240 235 234 235 241 256 222 243 243 246 241 243 242 240 240 241 239 241 241 243 240 238 238 239 238 239 240 239 244 243 246 246 247 250 254 254 257 258 261 264 268 268 269 267 269 268 270 272 274 276 276 274 271 270
229 242 242 225 249 247 245 243 243 239 238 239 237 241 243 238 239 245 241 232 234 235 235 236 239 237 244 248 247 247 249 252 254 252 259 261 266 271 275 279 284 284 283 282 281 280 277 277 277 276 277 277 276 276
234 250 249 241 236 236 237 242 244 244 242 241 240 240 234 233 236 235 231 239 234 247 249 248 245 238 243 240 240 238 248 249 272 349 365 392 411 461 477 473 480 483 478 473 461 456 328 315 310 302 299 296 294 295
247 245 236 236 233 231 238 241 245 242 242 238 237 244 245 244 233 238 242 247 245 245 251 260 259 261 269 269 286 291 324 353 410 462 453 458 471 466 454 446 445 455 465 472 473 471 469 467 462 458 452 445 437 429
249 239 237 234 232 237 241 242 242 242 238 240 241 244 232 248 251 243 242 254 256 256 259 267 268 268 263 287 292 348 435 456 444 441 456 446 436 420 410 406 411 417 431 439 441 437 432 427 421 415 410 405 400 396
237 243 238 236 235 231 234 242 239 240 248 253 251 251 248 245 239 256 259 249 258 262 267 270 276 285 297 310 431 459 465 460 449 436 424 416 412 404 399 392 390 397 400 398 397 395 395 395 394 392 388 384 379 371
243 243 236 232 237 240 243 243 244 248 255 252 244 243 250 251 259 256 253 264 265 269 274 283 290 303 336 492 485 473 472 505 496 486 470 407 386 383 380 379 379 377 380 416 394 386 379 373 368 366 362 358 353 352
241 239 242 243 243 248 250 247 243 239 253 254 248 249 258 260 262 263 265 271 273 282 285 295 318 334 473 457 458 509 524 507 492 480 469 457 438 403 414 433 409 390 378 369 365 359 354 351 348 343 339 336 339 339
248 249 252 253 245 238 248 253 248 255 253 249 260 260 263 264 263 270 272 280 284 288 306 327 335 456 440 423 434 413 402 448 473 467 459 431 417 396 379 368 361 360 356 350 346 339 334 333 329 325 326 328 335 337
235 250 253 258 256 245 253 261 248 253 263 265 261 263 262 271 269 275 287 280 299 321 326 407 452 440 421 406 416 404 388 381 375 368 364 363 361 366 363 358 351 343 340 336 333 329 325 323 331 329 329 332 336 332
247 250 257 263 261 253 250 262 266 257 259 268 266 271 273 280 280 280 294 311 325 323 390 437 433 420 417 397 413 397 385 375 367 359 360 362 359 355 349 346 340 338 334 332 330 327 327 329 332 330 326 332 334 333

GFSWCAN_2pvu_pres_072.txt.gz
Presure
325 364 427 377 383 417 354 277 276 279 288 288 295 297 295 299 312 309 318 319 312 311 277 308 305 306 306 302 293 287 307 314 312 304 292 302 298 304 313 315 323 326 323 210 272 171 266 205 255 270 274 262 239 239
309 319 337 363 364 380 442 380 302 278 279 270 279 280 290 292 293 303 303 300 298 289 295 291 288 286 284 276 276 95 125 289 287 270 107 292 288 167 291 290 294 299 302 305 320 329 314 287 258 258 259 258 178 257
297 307 321 350 355 354 376 389 381 284 272 279 267 268 274 271 278 273 289 285 277 233 274 278 266 278 95 190 239 241 270 274 258 252 277 234 269 253 277 282 285 258 283 293 296 290 258 325 289 270 257 253 257 247
291 297 321 399 441 403 367 370 375 368 301 271 277 276 271 266 269 270 268 269 275 271 265 261 264 262 258 216 261 168 264 273 221 193 189 243 270 272 271 144 200 209 154 287 300 218 294 293 310 315 280 267 273 252
284 291 359 405 396 402 416 407 376 369 371 308 276 267 262 275 270 264 264 264 270 272 265 258 264 253 258 260 258 260 218 272 160 155 179 270 231 164 270 271 269 275 277 275 249 204 290 280 290 311 262 262 258 244
286 289 363 375 394 408 395 406 395 377 368 383 306 294 279 272 264 250 272 267 261 265 248 244 249 249 251 257 259 261 263 170 107 275 269 258 133 260 266 267 269 271 273 269 278 291 213 282 279 291 286 263 278 184
285 282 343 382 366 387 405 401 403 386 373 366 365 325 305 297 292 283 277 267 266 268 261 262 177 262 261 258 255 257 265 270 140 264 196 267 238 275 280 279 274 278 287 172 271 270 280 312 285 290 298 245 171 216
286 281 308 340 376 355 376 415 438 407 384 365 369 355 349 333 316 303 299 295 289 285 283 275 275 270 272 274 250 254 103 277 278 283 278 278 280 283 275 267 276 270 277 296 304 298 301 299 277 281 290 315 211 261
285 279 303 348 349 370 377 388 416 402 389 379 356 353 353 350 356 359 367 385 389 404 406 283 398 199 295 287 278 235 277 272 284 284 276 277 291 293 295 297 304 338 351 369 357 281 305 285 268 294 190 278 296 263
281 275 289 335 338 375 350 351 371 382 388 383 376 371 385 375 372 357 343 340 341 337 335 347 348 330 356 363 107 296 289 288 291 290 287 296 306 384 366 361 346 336 344 348 353 267 302 258 292 304 283 301 305 289
282 278 275 304 336 340 365 349 359 351 340 337 360 356 375 340 341 333 327 327 328 326 324 325 325 347 342 341 354 368 363 365 370 365 360 360 360 347 358 350 336 348 331 346 337 336 307 293 283 265 287 299 295 284
295 279 271 282 314 328 358 367 357 358 364 374 368 326 327 325 328 325 325 323 306 302 318 319 324 332 334 345 338 341 345 333 350 346 343 341 326 326 326 334 351 345 335 327 328 294 301 292 270 265 301 191 305 270
319 283 276 271 287 301 308 309 312 316 332 338 335 327 323 317 347 317 318 323 307 323 330 319 323 330 333 336 336 336 341 339 334 335 326 321 330 332 334 342 351 301 321 295 287 274 268 259 255 294 288 280 283 271
341 309 281 280 269 280 292 296 297 301 300 295 293 298 297 302 305 306 309 312 314 311 308 303 302 298 296 295 289 292 294 294 299 306 324 327 332 343 353 291 284 281 273 269 272 264 260 268 286 273 279 295 286 297
339 334 301 278 277 274 277 281 284 287 286 282 282 282 281 280 280 281 282 285 283 282 281 280 280 276 278 276 274 272 282 279 276 271 277 281 285 285 288 285 285 280 281 292 274 273 273 278 278 272 274 289 303 283
337 342 326 303 280 284 281 282 283 288 298 308 308 303 318 305 280 280 315 277 275 277 276 276 273 273 276 273 274 280 280 283 285 286 287 285 286 284 282 286 284 286 283 280 275 273 279 274 269 284 313 308 317 311
352 353 349 344 307 282 284 285 285 293 303 298 306 317 306 304 301 302 304 308 311 303 293 279 283 297 298 303 302 286 294 295 307 310 309 321 336 344 310 291 283 281 277 274 275 269 269 306 296 298 298 296 299 321
389 385 382 381 366 294 293 292 299 304 301 295 291 290 290 302 300 299 297 298 295 285 292 285 282 277 263 268 264 255 266 269 275 274 273 274 279 281 283 290 299 318 334 331 328 312 304 288 295 290 295 289 284 286
332 397 396 423 426 313 306 302 307 285 293 293 288 280 274 269 267 266 263 261 260 262 260 260 261 257 253 253 253 246 245 243 246 255 257 262 261 259 253 259 261 268 269 269 271 272 271 277 283 289 294 293 288 285
260 278 291 345 470 350 299 281 271 269 265 256 258 251 253 249 247 251 248 244 246 244 244 245 251 254 255 251 252 255 253 255 256 252 246 252 244 247 246 249 245 242 238 242 255 257 263 266 267 272 273 275 279 285
223 226 254 262 269 225 269 263 253 251 256 256 253 254 254 252 253 238 244 251 245 240 239 240 238 251 246 248 249 248 247 248 246 249 253 248 258 257 258 259 260 262 268 269 263 262 264 265 265 266 267 268 271 274
227 253 256 244 250 248 253 226 247 246 251 249 246 253 253 245 241 241 246 242 245 235 242 242 240 239 244 241 241 248 248 244 249 250 249 257 259 260 260 260 257 259 258 261 263 266 270 272 272 274 274 275 277 276
255 243 256 260 258 255 250 250 251 252 247 250 249 246 242 243 244 236 244 239 237 226 244 236 231 240 240 240 245 247 248 250 244 249 246 248 256 255 261 269 274 283 297 295 304 301 295 299 299 298 300 300 303 304
243 249 245 246 250 248 252 251 251 247 246 246 242 245 246 233 242 244 242 234 238 240 244 242 242 246 244 240 237 251 250 242 247 250 263 271 311 327 337 339 344 351 356 363 434 432 431 432 438 468 470 472 447 473
243 246 240 241 241 237 245 248 248 245 242 240 241 239 239 240 247 245 242 243 241 240 238 243 244 234 237 246 239 233 257 259 266 333 341 350 376 491 489 485 477 465 458 453 452 449 444 436 429 428 437 466 467 464
252 251 237 242 238 234 238 238 236 231 231 238 241 239 239 240 240 241 242 244 242 239 240 243 245 253 237 244 261 263 304 318 333 358 477 466 453 442 502 484 463 443 432 425 422 413 407 402 400 402 403 405 409 408
246 250 251 246 242 239 233 236 233 229 235 234 235 237 238 241 239 240 243 239 235 241 247 249 256 254 259 258 290 311 319 346 426 465 452 438 427 416 508 495 478 452 428 404 392 389 382 380 381 380 382 394 390 387
234 237 241 246 243 237 236 236 238 232 232 238 235 231 235 242 241 241 240 240 244 243 254 254 255 268 295 305 306 321 353 432 461 440 429 426 410 403 485 481 471 454 429 403 387 380 378 382 391 384 378 372 365 361
241 244 251 248 246 244 241 240 235 237 239 236 232 246 244 240 240 246 248 247 257 257 253 260 285 306 307 307 324 363 453 457 449 424 422 416 402 391 385 385 433 417 406 406 401 392 379 369 360 353 349 345 340 338
245 249 249 245 243 242 240 239 240 240 239 247 246 239 241 246 248 248 257 263 261 262 282 286 306 306 305 330 379 447 445 456 444 420 404 402 385 379 376 370 372 369 364 363 356 355 353 349 344 339 337 335 335 335
252 251 251 250 244 242 238 240 247 248 240 239 251 250 246 247 253 261 259 272 277 280 297 308 308 305 348 392 405 420 459 467 443 416 401 397 386 376 370 361 364 363 357 353 348 345 343 342 341 339 338 338 339 342
247 246 246 242 243 248 246 239 238 248 252 249 247 253 257 260 258 250 278 276 285 297 309 307 309 366 391 346 416 494 491 461 438 412 400 391 381 375 366 361 352 362 354 350 351 348 345 342 342 343 343 341 340 338
245 246 246 245 244 245 251 254 253 253 254 258 255 252 267 267 273 276 283 286 293 308 307 309 378 370 339 338 492 489 476 453 437 410 397 388 375 369 358 354 362 353 352 357 353 348 347 347 347 347 346 345 345 344